     2.10           OBSERVATION DATA    G (GPS)             RINEX VERSION / TYPE
teqc 2002Apr3 Duncan Agnew 20050511 23:58:23UTC             PGM / RUN BY / DATE
OSX 5.3|G3|cc|OSX 5.3+|G3+                                  COMMENT
BIT 2 OF LLI FLAGS DATA COLLECTED UNDER A/S CONDITION       COMMENT
GLO NO 1 1934                                               MARKER NAME
2771                                                        MARKER NUMBER
Juan Cabrera Nolte Engineering                              OBSERVER / AGENCY
220242771 TRIMBLE 4800 NP 1.30 / SP 1.43                    REC # / TYPE / VERS
N/A TRM4800                                                 ANT # / TYPE
 -2305264.0000 -4812055.0000  3482467.0000                  APPROX POSITION XYZ
        2.0000        0.0000        0.0000                  ANTENNA: DELTA H/E/N
     1     1                                                WAVELENGTH FACT L1/2
     7    C1    L1    L2    P1    P2    S1    S2            # / TYPES OF OBSERV
SNR is mapped to RINEX snr flag value [1-9]                 COMMENT
L1: 3 -> 1; 8 -> 5; 40 -> 9                                 COMMENT
L2: 1 -> 1; 5 -> 5; 60 -> 9                                 COMMENT
  2004     6    28    22     0   10.0000000     GPS         TIME OF FIRST OBS
                                                            END OF HEADER
 04  6 28 22  0 10.0000000  0  6G 1G11G14G16G20G25
  22765976.9994    -473451.80659   -365446.67257                  22765977.6754
        47.5004         34.0004
  22157506.8614     300802.28359    225134.91757                  22157506.5554
        50.2504         37.5004
  24066000.3704     530523.63859    397527.83257                  24066001.1624
        41.0004         27.5004
  23782041.1014    -776848.03559   -597203.53857                  23782041.4434
        45.2504         27.0004
  22083410.2624    -694658.70159   -533126.44257                  22083409.9914
        49.5004         37.5004
  21073866.6654     339498.13059    255511.28458                  21073865.7274
        53.2504         45.0004
 04  6 28 22  0 20.0000000  0  6G 1G11G14G16G20G25
  22762326.7714    -492636.09449   -380395.44847                  22762327.7884
        48.0004         34.5004
  22159931.9374     313546.47049    235065.42947                  22159931.1954
        50.5004         37.5004
  24070154.6604     552352.39649    414537.21947                  24070154.9624
        41.2504         27.5004
  23776019.8514    -808487.64549   -621857.75247                  23776021.2464
        44.5004         26.5004
  22078075.9284    -722691.10549   -554969.87247                  22078075.3004
        49.7504         37.5004
  21076577.2474     353743.47349    266611.54348                  21076576.3024
        53.5004         44.7504
 04  6 28 22  0 30.0000000  0  6G 1G11G14G16G20G25
  22758678.7004    -511803.77449   -395331.29347                  22758679.9044
        47.7504         34.2504
  22162366.7714     326341.13349    245035.28947                  22162366.5734
        49.2504         38.0004
  24074308.3884     574184.71649    431549.40447                  24074309.5164
        40.5004         28.0004
  23770001.2574    -840117.01849   -646503.97747                  23770002.0524
        45.0004         27.5004
  22072746.2724    -750698.22349   -576793.59047                  22072745.6134
        49.5004         37.5004
  21079296.3644     368033.56149    277746.67748                  21079295.4274
        52.5004         44.2504
 04  6 28 22  0 40.0000000  0  6G 1G11G14G16G20G25
  22755034.5474    -530953.83649   -410253.38547                  22755035.5314
        47.5004         34.0004
  22164811.0804     339187.24049    255045.23347                  22164810.9724
        50.7504         38.0004
  24078464.0204     596021.66749    448565.17747                  24078464.8884
        41.7504         27.2504
  23763984.4124    -871734.91249   -671141.27147                  23763985.4714
        45.0004         28.0004
  22067421.7944    -778678.89049   -598596.67947                  22067420.7774
        49.7504         37.7504
  21082024.3214     382369.41249    288917.47448                  21082023.6904
        53.5004         44.2504
 04  6 28 22  0 50.0000000  0  6G 1G11G14G16G20G25
  22751394.2874    -550084.00349   -425159.99747                  22751395.7894
        47.2504         34.0004
  22167265.6364     352087.04149    265097.01847                  22167265.3624
        49.5004         37.2504
  24082620.8984     617865.48149    465586.29847                  24082621.5204
        41.2504         27.0004
  23757970.2654    -903338.97449   -695767.75047                  23757971.0464
        45.0004         28.5004
  22062102.7694    -806630.74649   -620377.34047                  22062102.1634
        50.2504         38.0004
  21084761.5374     396753.09249    300125.53548                  21084760.3184
        52.7504         44.2504
 04  6 28 22  1  0.0000000  0  6G 1G11G14G16G20G25
  22747757.4884    -569193.93649   -440050.83947                  22747759.0134
        47.2504         34.0004
  22169731.0784     365040.86949    275190.89547                  22169730.9334
        49.5004         37.5004
  24086778.7154     639716.55049    482613.07647                  24086780.3154
        42.0004         27.5004
  23751959.8004    -934928.79849   -720383.17747                  23751959.7614
        45.2504         28.5004
  22056789.0734    -834553.33749   -642135.19047                  22056788.4334
        50.2504         37.2504
  21087508.0584     411184.96949    311371.14248                  21087506.7644
        52.5004         44.0004
 04  6 28 22  1 10.0000000  0  6G 1G11G14G16G20G25
  22744124.8054    -588286.70049   -454928.29147                  22744125.0274
        48.0004         33.7504
  22172205.4544     378045.43649    285324.32347                  22172205.2964
        50.2504         37.2504
  24090938.6134     661571.77649    499643.11947                  24090938.7934
        42.0004         27.7504
  23745949.8284    -966507.24649   -744989.72947                  23745951.0124
        45.2504         28.0004
  22051480.8664    -862449.66449   -663872.57347                  22051480.0214
        50.2504         38.0004
  21090262.7894     425661.89149    322651.86348                  21090261.9544
        52.7504         43.7504
 04  6 28 22  1 20.0000000  0  6G 1G11G14G16G20G25
  22740494.5454    -607361.50149   -469791.75747                  22740495.4064
        48.0004         34.0004
  22174689.7864     391101.47549    295497.84247                  22174689.8984
        50.5004         36.7504
  24095097.9284     683431.91149    516676.94347                  24095098.5974
        41.5004         26.2504
  23739942.9254    -998073.49049   -769586.77347                  23739943.5384
        45.5004         28.0004
  22046177.3374    -890318.84549   -685588.81247                  22046176.9334
        50.2504         38.0004
  21093026.4174     440184.60049    333968.25248                  21093025.4464
        52.5004         44.2504
 04  6 28 22  1 30.0000000  0  6G 1G11G14G16G20G25
  22736867.3934    -626423.20049   -484645.01247                  22736868.4184
        48.0004         35.0004
  22177183.2564     404204.11149    305707.67647                  22177183.0424
        49.7504         37.2504
  24099257.8714     705292.15649    533710.89346                  24099258.4134
        42.0004         25.0004
  23733937.5494   -1029632.23149   -794177.96347                  23733938.1384
        45.0004         28.7504
  22040878.4194    -918165.67249   -707287.62547                  22040877.3414
        50.2504         38.0004
  21095797.8234     454748.17949    345316.49148                  21095796.8984
        52.0004         44.0004
 04  6 28 22  1 40.0000000  0  6G 1G11G14G16G20G25
  22733242.3254    -645472.62149   -499488.68747                  22733243.5954
        47.5004         34.7504
  22179685.5544     417352.42849    315953.10347                  22179685.3264
        50.0004         37.0004
  24103417.4574     727151.72949    550744.31547                  24103418.4264
        41.5004         28.0004
  23727933.6744   -1061184.06449   -818763.78547                  23727934.3574
        45.0004         28.0004
  22035583.3754    -945990.77249   -728969.51247                  22035582.7494
        50.0004         38.5004
  21098576.7334     469351.79549    356695.92448                  21098575.6494
        51.5004         44.2504
 04  6 28 22  1 50.0000000  0  6G 1G11G14G16G20G25
  22729619.9684    -664509.71249   -514322.76247                  22729621.5934
        47.2504         34.5004
  22182196.0164     430546.43649    326234.13647                  22182195.7094
        50.5004         37.0004
  24107577.6674     749010.70149    567777.27647                  24107578.5364
        42.2504         26.5004
  23721930.6424   -1092728.87449   -843344.13847                  23721930.9304
        45.0004         29.0004
  22030292.4964    -973794.10849   -750634.43847                  22030291.6014
        49.7504         37.7504
  21101363.3164     483995.41149    368106.53948                  21101362.4554
        53.0004         44.0004
 04  6 28 22  2  0.0000000  0  6G 1G11G14G16G20G25
  22725998.8354    -683536.85349   -529149.09347                  22725999.9564
        48.5004         35.0004
  22184715.0444     443783.73549    336548.89347                  22184714.9104
        49.2504         37.2504
  24111735.9624     770866.69849    584807.90146                  24111736.8064
        41.0004         25.5004
  23715928.3434   -1124268.95149   -867920.78947                  23715929.8124
        44.5004         28.7504
  22025005.5644   -1001577.87449   -772284.12847                  22025004.9504
        50.2504         37.7504
  21104156.9504     498676.58149    379546.40048                  21104156.3254
        52.2504         44.0004
 04  6 28 22  2 10.0000000  0  6G 1G11G14G16G20G25
  22722380.1944    -702552.84049   -543966.73647                  22722381.8564
        48.5004         35.2504
  22187242.6834     457065.39949    346898.23447                  22187242.3494
        50.0004         37.2504
  24115895.3654     792720.98649    601837.20446                  24115895.7054
        41.7504         24.5004
  23709927.8334   -1155802.90349   -892492.63547                  23709929.4244
        44.0004         28.5004
  22019722.5134   -1029340.80449   -793917.56547                  22019721.6644
        50.2504         38.5004
  21106958.3714     513396.39249    391016.37848                  21106957.4424
        52.0004         44.5004
 04  6 28 22  2 20.0000000  0  6G 1G11G14G16G20G25
  22718763.7554    -721559.57549   -558777.14847                  22718764.8664
        48.5004         35.2504
  22189778.2174     470389.47249    357280.61847                  22189777.8214
        50.5004         37.7504
  24120053.3944     814571.64449    618863.68547                  24120053.6364
        40.5004         26.2504
  23703928.0354   -1187332.55449   -917061.16247                  23703929.6744
        44.0004         27.0004
  22014442.9324   -1057084.70749   -815536.17747                  22014442.3104
        49.7504         37.7504
  21109766.2534     528152.87649    402514.94348                  21109764.8984
        52.0004         44.0004
 04  6 28 22  2 30.0000000  0  6G 1G11G14G16G20G25
  22715148.3534    -740558.15949   -573581.22747                  22715149.4674
        48.7504         35.0004
  22192321.7184     483754.80249    367695.12947                  22192321.3244
        50.5004         37.5004
  24124210.1694     836417.59449    635886.47447                  24124211.5804
        41.0004         26.5004
  23697928.0484   -1218858.82949   -941627.06647                  23697930.2794
        43.7504         27.7504
  22009166.6484   -1084810.52849   -837140.70947                  22009165.9544
        49.2504         37.5004
  21112581.0334     542944.88849    414041.17648                  21112579.9794
        52.2504         44.2504
 04  6 28 22  2 40.0000000  0  6G 1G11G14G16G20G25
  22711534.3234    -759548.43449   -588378.81747                  22711535.7764
        48.0004         34.7504
  22194872.6034     497161.38649    378141.81847                  22194872.5384
        49.5004         37.2504
  24128366.9814     858258.94849    652905.64047                  24128367.3414
        41.7504         26.5004
  23691929.6874   -1250381.59149   -966190.20047                  23691931.4844
        43.5004         27.2504
  22003894.3184   -1112518.06049   -858730.97547                  22003893.7144
        51.0004         38.0004
  21115402.5694     557772.51549    425595.17048                  21115401.7764
        51.5004         44.2504
 04  6 28 22  2 50.0000000  0  6G 1G11G14G16G20G25
  22707921.8414    -778530.69249   -603170.17747                  22707923.2764
        48.2504         34.7504
  22197431.8274     510609.03949    388620.48347                  22197431.3484
        50.0004         36.7504
  24132521.6274     880095.46849    669921.11747                  24132523.1264
        40.2504         25.7504
  23685930.8714   -1281900.82649   -990750.60647                  23685933.2374
        43.0004         29.2504
  21998625.3504   -1140207.54849   -880307.20047                  21998624.5174
        51.0004         38.2504
  21118230.9634     572635.42849    437176.64748                  21118229.8144
        52.0004         44.7504
 04  6 28 22  3  0.0000000  0  6G 1G11G14G16G20G25
  22704311.7524    -797504.11849   -617954.64147                  22704312.3214
        48.5004         35.2504
  22199998.7874     524098.49649    399131.74247                  22199998.5584
        49.0004         37.0004
  24136676.7694     901928.02449    686933.48646                  24136677.7524
        40.0004         25.2504
  23679934.3314   -1313415.65649  -1015307.58147                  23679936.1184
        44.2504         29.2504
  21993359.7294   -1167878.03849   -901868.61047                  21993358.8414
        50.5004         38.5004
  21121066.2744     587534.42049    448786.25048                  21121065.1184
        51.7504         44.0004
 04  6 28 22  3 10.0000000  0  6G 1G11G14G16G20G25
  22700702.5784    -816469.89349   -632733.16147                  22700703.3104
        47.7504         34.5004
  22202573.4334     537628.40649    409674.51247                  22202572.7794
        50.2504         37.0004
  24140829.9984     923755.37049    703941.76547                  24140831.7134
        40.7504         26.5004
  23673938.3924   -1344927.16249  -1039861.95947                  23673939.7414
        44.7504         29.0004
  21988097.5874   -1195530.61249   -923416.06347                  21988096.3884
        50.5004         38.5004
  21123907.8944     602468.16349    460422.91948                  21123907.0454
        52.2504         44.0004
 04  6 28 22  3 20.0000000  0  6G 1G11G14G16G20G25
  22697094.3834    -835428.09149   -647505.75747                  22697095.0964
        48.0004         35.0004
  22205155.2614     551198.63449    420248.70847                  22205155.2324
        50.5004         36.5004
  24144983.0754     945577.40749    720945.93647                  24144983.4884
        41.2504         25.7504
  23667942.9864   -1376435.31149  -1064413.72747                  23667943.5174
        44.0004         28.2504
  21982838.8554   -1223165.26049   -944949.54047                  21982838.1064
        50.0004         37.7504
  21126756.5384     617436.57249    472086.61648                  21126755.2754
        52.5004         44.0004
 04  6 28 22  3 30.0000000  0  6G 1G11G14G16G20G25
  22693488.0864    -854380.20949   -662273.60647                  22693489.4654
        48.2504         35.0004
  22207745.4024     564807.66849    430853.13047                  22207744.7304
        49.7504         36.5004
  24149133.6064     967392.71849    737944.83046                  24149135.6344
        40.7504         25.5004
  23661946.7764   -1407941.47349  -1088963.97047                  23661948.0534
        44.7504         28.2504
  21977583.0284   -1250783.36149   -966470.14047                  21977582.3804
        50.5004         38.0004
  21129611.0864     632438.05649    483776.07848                  21129610.3154
        52.2504         44.0004
 04  6 28 22  3 40.0000000  0  6G 1G11G14G16G20G25
  22689882.8834    -873326.38149   -677036.84047                  22689883.9714
        48.7504         35.2504
  22210342.4254     578455.26649    441487.61447                  22210342.0244
        50.2504         36.7504
  24153284.5084     989201.18149    754938.44446                  24153285.1284
        41.0004         25.2504
  23655951.0764   -1439445.62749  -1113512.63547                  23655952.5794
        44.7504         26.7504
  21972330.5244   -1278384.97449   -987977.86947                  21972329.9844
        50.5004         37.7504
  21132472.0324     647472.41549    495491.16448                  21132470.9074
        53.0004         43.5004
 04  6 28 22  3 50.0000000  0  6G 1G11G14G16G20G25
  22686279.4824    -892263.95749   -691793.37847                  22686279.9094
        48.0004         35.7504
  22212947.1964     592144.05149    452154.18047                  22212946.7804
        50.2504         36.5004
  24157433.4494    1011005.53349    771928.83647                  24157434.6854
        41.2504         26.5004
  23649957.8774   -1470944.97349  -1138057.52647                  23649958.8184
        44.5004         28.0004
  21967082.2744   -1305967.35349  -1009470.62147                  21967081.3414
        50.7504         38.5004
  21135339.6304     662542.22449    507233.86248                  21135338.5934
        52.5004         44.0004
 04  6 28 22  4  0.0000000  0  6G 1G11G14G16G20G25
  22682677.4524    -911192.28949   -706542.69547                  22682678.6644
        48.7504         35.7504
  22215560.2264     605874.54949    462853.25547                  22215560.0744
        50.7504         37.2504
  24161581.5494    1032806.29749    788916.41547                  24161583.0454
        41.0004         26.2504
  23643965.0854   -1502438.74449  -1162598.11747                  23643965.5024
        45.0004         27.5004
  21961836.9814   -1333529.70749  -1030947.77647                  21961836.0014
        50.2504         38.5004
  21138214.0004     677648.11449    519004.68048                  21138213.2974
        53.0004         44.2504
 04  6 28 22  4 10.0000000  0  6G 1G11G14G16G20G25
  22679076.8064    -930113.46849   -721286.46947                  22679078.1324
        48.5004         35.7504
  22218180.7394     619644.47549    473583.04647                  22218180.5024
        50.0004         37.5004
  24165729.3844    1054601.47449    805899.68846                  24165730.2574
        40.5004         24.5004
  23637971.9804   -1533928.86749  -1187135.82547                  23637972.9054
        44.5004         28.0004
  21956595.3904   -1361074.05449  -1052410.89747                  21956594.8364
        50.2504         38.0004
  21141095.1754     692787.93449    530801.93548                  21141094.1204
        52.5004         44.5004
 04  6 28 22  4 20.0000000  0  6G 1G11G14G16G20G25
  22675477.7974    -949027.02049   -736024.27147                  22675478.7694
        48.5004         36.0004
  22220808.2654     633454.46049    484344.06647                  22220808.0964
        49.5004         38.0004
  24169875.9994    1076391.48949    822878.85646                  24169877.0364
        40.7504         23.5004
  23631981.0204   -1565414.76949  -1211670.27047                  23631981.8924
        45.0004         28.0004
  21951357.3154   -1388599.89949  -1073859.60347                  21951356.6654
        50.5004         38.0004
  21143982.6844     707962.06349    542625.92948                  21143981.5324
        52.5004         43.7504
 04  6 28 22  4 30.0000000  0  6G 1G11G14G16G20G25
  22671880.0364    -967932.20349   -750755.57247                  22671881.8284
        48.5004         36.0004
  22223444.3954     647305.17549    495136.81047                  22223444.3964
        50.0004         37.7504
  24174021.7324    1098177.12149    839854.66446                  24174022.3784
        40.7504         22.5004
  23625990.1344   -1596895.63549  -1236200.75547                  23625991.2564
        45.0004         27.5004
  21946123.4694   -1416106.35449  -1095293.18747                  21946122.2364
        50.0004         38.0004
  21146877.0844     723171.16349    554477.17048                  21146875.9254
        53.0004         44.0004
 04  6 28 22  4 40.0000000  0  6G 1G11G14G16G20G25
  22668284.2794    -986829.29649   -765480.57547                  22668285.7734
        49.0004         35.0004
  22226087.7844     661196.30449    505961.05647                  22226087.4574
        47.7504         37.2504
  24178166.4474    1119958.13549    856826.85946                  24178167.2574
        40.7504         22.2504
  23620000.5694   -1628371.62349  -1260727.48547                  23620001.8184
        45.7504         29.5004
  21940892.4394   -1443593.54749  -1116711.77747                  21940891.4964
        50.5004         38.0004
  21149777.8104     738414.89249    566355.40348                  21149776.7094
        52.5004         43.7504
 04  6 28 22  4 50.0000000  0  6G 1G11G14G16G20G25
  22664689.4004   -1005717.51449   -780198.64847                  22664690.5884
        48.0004         35.0004
  22228738.6704     675128.45549    516817.26247                  22228738.9094
        50.0004         37.5004
  24182310.1934    1141735.28749    873796.10346                  24182310.7054
        40.5004         22.5004
  23614012.4684   -1659841.79149  -1285249.64147                  23614013.0214
        45.2504         29.7504
  21935665.7604   -1471060.61749  -1138114.67947                  21935664.9314
        50.0004         37.7504
  21152685.1104     753693.95949    578261.16348                  21152684.2284
        53.2504         44.0004
 04  6 28 22  5  0.0000000  0  6G 1G11G14G16G20G25
  22661097.0614   -1024596.83949   -794909.79347                  22661097.9584
        48.2504         34.7504
  22231397.9784     689101.66649    527705.45547                  22231398.1714
        50.0004         37.2504
  24186454.2974    1163508.76649    890762.38646                  24186454.3134
        40.0004         22.7504
  23608024.6384   -1691305.89949  -1309767.11547                  23608025.9054
        45.2504         29.2504
  21930442.6564   -1498507.39049  -1159501.76647                  21930442.2564
        50.5004         38.5004
  21155599.5424     769008.43549    590194.50748                  21155598.6874
        53.2504         44.2504
 04  6 28 22  5 10.0000000  0  6G 1G11G14G16G20G25
  22657505.9314   -1043468.90049   -809615.27847                  22657507.1124
        48.0004         34.5004
  22234064.5484     703114.18849    538624.29547                  22234064.5734
        50.2504         36.5004
  24190595.4584    1185276.84049    907724.53746                  24190596.3924
        40.5004         22.5004
  23602037.8514   -1722765.54549  -1334281.08647                  23602039.2504
        45.5004         29.5004
  21925223.3634   -1525935.47449  -1180874.29647                  21925222.6694
        50.7504         38.5004
  21158520.3864     784356.48149    602154.02048                  21158519.3964
        53.2504         44.5004
 04  6 28 22  5 20.0000000  0  6G 1G11G14G16G20G25
  22653916.1724   -1062332.99849   -824314.54247                  22653916.9964
        48.0004         35.2504
  22236738.3714     717166.67649    549574.27147                  22236737.9574
        50.2504         37.0004
  24194737.8834    1207040.22049    924683.01246                  24194738.1564
        40.0004         22.2504
  23596052.7954   -1754219.80149  -1358790.85947                  23596053.6464
        45.7504         29.5004
  21920007.6594   -1553344.04149  -1202231.61047                  21920006.5294
        50.2504         38.7504
  21161447.3144     799738.78249    614140.23448                  21161445.9854
        52.5004         44.0004
 04  6 28 22  5 30.0000000  0  6G 1G11G14G16G20G25
  22650327.9764   -1081187.95349   -839006.72047                  22650328.8084
        47.5004         35.0004
  22239420.3194     731260.13049    560556.16547                  22239419.8254
        49.7504         36.5004
  24198878.4644    1228800.11949    941638.75746                  24198878.2734
        39.5004         22.5004
  23590068.3504   -1785667.51449  -1383295.53947                  23590069.2204
        46.0004         30.5004
  21914795.7784   -1580731.84849  -1223572.75547                  21914794.9874
        50.2504         38.5004
  21164381.1674     815156.40749    626153.95948                  21164380.2614
        53.0004         44.0004
 04  6 28 22  5 40.0000000  0  6G 1G11G14G16G20G25
  22646741.9694   -1100035.42549   -853693.04847                  22646742.2734
        48.7504         34.7504
  22242109.6574     745392.87949    571568.69247                  22242108.8454
        48.2504         36.2504
  24203018.4484    1250554.90749    958590.50046                  24203018.8224
        40.2504         22.2504
  23584085.0214   -1817110.09849  -1407796.22447                  23584085.4484
        46.5004         30.2504
  21909587.7934   -1608100.38149  -1244898.87147                  21909587.0714
        50.0004         38.2504
  21167321.4364     830607.67149    638193.90148                  21167320.7874
        52.0004         44.0004
 04  6 28 22  5 50.0000000  0  6G 1G11G14G16G20G25
  22643156.5034   -1118876.12849   -868374.11347                  22643157.2004
        48.5004         35.5004
  22244806.6764     759564.14849    582611.21547                  22244806.0574
        49.7504         37.0004
  24207156.9784    1272303.73549    975537.65446                  24207157.4474
        40.0004         22.5004
  23578102.0524   -1848548.27149  -1432293.46847                  23578103.1324
        46.0004         29.7504
  21904383.3524   -1635450.37849  -1266210.56647                  21904382.4064
        50.2504         38.5004
  21170268.0274     846091.80149    650259.44948                  21170267.2394
        53.0004         44.2504
 04  6 28 22  6  0.0000000  0  6G 1G11G14G16G20G25
  22639573.1094   -1137706.79749   -883047.34447                  22639574.7414
        48.5004         35.5004
  22247511.4564     773777.12649    593686.24747                  22247510.8974
        50.2504         37.2504
  24211295.3434    1294050.09649    992482.82146                  24211295.5884
        40.7504         23.0004
  23572121.4354   -1879978.47749  -1456784.49147                  23572121.7364
        45.5004         29.5004
  21899183.3384   -1662778.34949  -1287505.07647                  21899182.5204
        50.2504         38.2504
  21173221.3694     861612.01249    662353.11848                  21173220.4824
        52.2504         43.7504
 04  6 28 22  6 10.0000000  0  6G 1G11G14G16G20G25
  22635990.9934   -1156529.43349   -897714.31247                  22635992.2694
        48.0004         36.0004
  22250223.6604     788029.72449    604792.16247                  22250222.6094
        48.7504         37.2504
  24215432.2974    1315791.84349   1009424.38446                  24215433.4944
        40.7504         22.5004
  23566141.3104   -1911402.73349  -1481270.90447                  23566141.9074
        45.5004         28.0004
  21893986.4174   -1690086.23149  -1308783.94247                  21893985.4854
        50.2504         39.0004
  21176181.3964     877166.25649    674473.29248                  21176180.3704
        51.5004         44.0004
 04  6 28 22  6 20.0000000  0  6G 1G11G14G16G20G25
  22632411.4494   -1175343.03349   -912374.25547                  22632412.5764
        48.5004         35.7504
  22252943.1194     802322.97349    615929.74247                  22252943.3624
        49.5004         37.0004
  24219570.0384    1337530.06349   1026363.28246                  24219570.2754
        41.5004         24.7504
  23560163.3554   -1942819.83249  -1505751.73947                  23560163.3714
        45.5004         28.5004
  21888793.7374   -1717372.91349  -1330046.28147                  21888793.0574
        50.5004         38.5004
  21179147.7314     892755.54649    686620.78948                  21179146.6874
        52.7504         43.5004
 04  6 28 22  6 30.0000000  0  6G 1G11G14G16G20G25
  22628831.9934   -1194149.34049   -927028.49947                  22628833.6644
        48.5004         35.7504
  22255670.5164     816655.06449    627097.59247                  22255670.3044
        50.5004         36.5004
  24223704.4104    1359263.14549   1043298.12746                  24223705.6714
        40.5004         23.0004
  23554185.2894   -1974231.37149  -1530228.24147                  23554185.8104
        45.5004         28.0004
  21883605.1204   -1744639.98949  -1351293.35247                  21883604.1434
        50.2504         39.2504
  21182120.7964     908378.01849    698794.14048                  21182119.9934
        53.0004         43.5004
 04  6 28 22  6 40.0000000  0  6G 1G11G14G16G20G25
  22625255.0684   -1212946.49649   -941675.62147                  22625256.5664
        48.0004         36.0004
  22258405.8334     831027.65949    638297.00347                  22258405.4814
        49.7504         36.7504
  24227839.6284    1380992.71849   1060230.23346                  24227841.1824
        41.5004         23.2504
  23548209.7934   -2005635.40949  -1554698.86847                  23548210.0274
        45.7504         29.0004
  21878420.5914   -1771885.65349  -1372523.73247                  21878419.9804
        49.7504         38.7504
  21185100.3354     924035.37449    710994.67448                  21185099.5024
        52.2504         43.5004
 04  6 28 22  6 50.0000000  0  6G 1G11G14G16G20G25
  22621679.1044   -1231735.41849   -956316.31147                  22621680.8984
        47.7504         34.7504
  22261148.2054     845439.82849    649527.24347                  22261147.9144
        49.0004         37.0004
  24231974.0424    1402718.02549   1077159.04646                  24231974.6714
        40.2504         22.5004
  23542234.7034   -2037032.72149  -1579164.28247                  23542235.3114
        45.5004         28.7504
  21873239.5554   -1799110.67649  -1393738.02647                  21873239.2504
        51.0004         38.7504
  21188086.0814     939726.70549    723221.68448                  21188085.1314
        52.0004         44.0004
 04  6 28 22  7  0.0000000  0  6G 1G11G14G16G20G25
  22618106.2284   -1250515.81249   -970950.36847                  22618107.5024
        48.0004         34.7504
  22263898.2604     859891.75749    660788.47347                  22263897.8934
        50.7504         37.0004
  24236107.6334    1424439.32949   1094084.70746                  24236108.6004
        40.7504         22.2504
  23536261.7304   -2068422.91749  -1603624.16347                  23536261.5774
        45.5004         28.0004
  21868062.7344   -1826314.68149  -1414935.94947                  21868062.4214
        50.5004         38.7504
  21191078.7814     955452.20749    735475.31448                  21191077.9944
        52.7504         44.0004
 04  6 28 22  7 10.0000000  0  6G 1G11G14G16G20G25
  22614533.6514   -1269287.82949   -985577.90347                  22614534.9204
        47.7504         35.0004
  22266655.7104     874383.31549    672080.59247                  22266655.5784
        50.5004         37.2504
  24240239.3254    1446156.56149   1111007.17946                  24240240.9544
        38.7504         22.2504
  23530288.5954   -2099805.94249  -1628078.41147                  23530289.9524
        44.5004         28.2504
  21862890.3274   -1853497.67649  -1436117.48947                  21862889.4134
        51.0004         38.7504
  21194077.4794     971211.75949    747755.47948                  21194076.5234
        53.2504         44.0004
 04  6 28 22  7 20.0000000  0  6G 1G11G14G16G20G25
  22610963.5324   -1288049.84249  -1000197.64647                  22610963.8374
        48.2504         35.0004
  22269421.3654     888915.97849    683404.72647                  22269421.2704
        50.5004         37.0004
  24244371.7814    1467871.35649   1127927.76946                  24244373.0094
        38.5004         20.5004
  23524318.8764   -2131180.14849  -1652525.81947                  23524319.5174
        44.2504         28.0004
  21857721.7484   -1880657.97949  -1457281.36147                  21857720.5954
        51.0004         38.5004
  21197083.2104     987006.82149    760063.30548                  21197082.7724
        52.2504         44.0004
 04  6 28 22  7 30.0000000  0  6G 1G11G14G16G20G25
  22607395.0014   -1306802.49949  -1014810.10047                  22607395.4014
        48.7504         34.7504
  22272194.8174     903489.09049    694760.38547                  22272195.0884
        50.5004         36.5004
  24248504.6894    1489583.06449   1144845.97846                  24248504.5424
        39.7504         20.0004
  23518349.7264   -2162545.96849  -1676966.69647                  23518350.7214
        44.7504         28.2504
  21852557.4034   -1907796.04449  -1478427.89947                  21852556.3474
        50.5004         38.7504
  21200095.7964    1002836.73849    772398.29548                  21200094.4054
        52.2504         44.2504
 04  6 28 22  7 40.0000000  0  6G 1G11G14G16G20G25
  22603827.7364   -1325546.75749  -1029416.00847                  22603828.3574
        48.2504         35.0004
  22274974.8844     918101.52149    706146.67947                  22274975.0754
        50.0004         37.0004
  24252635.2324    1511290.63949   1161760.97646                  24252636.0344
        40.0004         21.0004
  23512382.4064   -2193904.29649  -1701401.70847                  23512383.8994
        45.0004         28.5004
  21847397.2944   -1934912.83849  -1499557.86447                  21847396.8104
        51.2504         38.5004
  21203114.1904    1018700.33949    784759.54048                  21203113.5714
        52.0004         43.5004
 04  6 28 22  7 50.0000000  0  6G 1G11G14G16G20G25
  22600262.8794   -1344282.26649  -1044015.08247                  22600263.3614
        48.2504         35.0004
  22277763.1984     932753.62549    717563.88547                  22277763.6164
        48.0004         36.5004
  24256765.4774    1532994.54649   1178673.09446                  24256765.6704
        40.5004         21.0004
  23506417.0854   -2225254.62449  -1725830.48547                  23506417.3964
        44.5004         28.0004
  21842241.4614   -1962007.83749  -1520670.84547                  21842240.4184
        50.2504         38.5004
  21206139.7604    1034598.01749    797147.33748                  21206139.1834
        51.7504         43.5004
 04  6 28 22  8  0.0000000  0  6G 1G11G14G16G20G25
  22596698.9014   -1363009.90749  -1058608.04647                  22596699.8434
        48.5004         35.0004
  22280558.8794     947444.51849    729011.32847                  22280558.9204
        49.7504         36.5004
  24260894.0384    1554693.85549   1195581.64146                  24260895.0764
        41.7504         23.0004
  23500453.1044   -2256597.65549  -1750253.61347                  23500453.7984
        45.0004         28.5004
  21837089.3554   -1989081.80049  -1541767.42947                  21837088.6304
        51.0004         38.7504
  21209171.3904    1050528.81649    809560.93548                  21209170.2254
        52.0004         44.2504
 04  6 28 22  8 10.0000000  0  6G 1G11G14G16G20G25
  22593137.0284   -1381728.31749  -1073193.80647                  22593137.9964
        48.5004         35.2504
  22283362.2984     962175.44249    740489.96447                  22283362.0294
        50.0004         36.7504
  24265023.0614    1576389.99149   1212487.70046                  24265023.5924
        40.5004         22.2504
  23494490.0294   -2287931.92349  -1774669.87947                  23494490.6674
        44.7504         28.2504
  21831941.8044   -2016133.29349  -1562846.51048                  21831941.0484
        50.7504         39.5004
  21212209.1554    1066494.06849    822001.39248                  21212208.7504
        52.5004         44.2504
 04  6 28 22  8 20.0000000  0  6G 1G11G14G16G20G25
  22589576.4984   -1400438.24149  -1087772.94947                  22589577.9064
        48.0004         35.5004
  22286172.7124     976945.69649    751999.23647                  22286172.3694
        50.0004         36.7504
  24269150.6934    1598082.33049   1229390.81246                  24269151.2974
        42.2504         25.2504
  23488528.9164   -2319258.02249  -1799079.79847                  23488529.3054
        45.7504         28.7504
  21826798.0424   -2043162.93849  -1583908.56347                  21826797.4654
        51.0004         39.2504
  21215253.2494    1082492.93149    834468.02648                  21215252.8224
        52.7504         44.0004
 04  6 28 22  8 30.0000000  0  6G 1G11G14G16G20G25
  22586017.6684   -1419139.58749  -1102345.41147                  22586018.9994
        47.5004         34.7504
  22288990.9654     991755.11949    763539.04047                  22288991.1704
        50.0004         36.5004
  24273278.4574    1619770.85849   1246290.92746                  24273278.7904
        42.5004         23.5004
  23482569.1634   -2350575.85049  -1823483.24647                  23482569.5604
        45.2504         27.7504
  21821658.6204   -2070170.60549  -1604953.49447                  21821657.9244
        50.7504         38.7504
  21218304.8864    1098525.47349    846960.91548                  21218304.0664
        53.0004         43.2504
 04  6 28 22  8 40.0000000  0  6G 1G11G14G16G20G25
  22582460.7864   -1437831.21849  -1116910.30447                  22582461.8014
        48.0004         35.0004
  22291816.7514    1006604.69749    775110.14047                  22291816.9464
        50.0004         36.5004
  24277405.0174    1641456.70249   1263188.98346                  24277405.7454
        41.5004         22.2504
  23476610.9074   -2381884.08449  -1847879.25747                  23476611.5144
        45.0004         28.5004
  21816523.8644   -2097155.05049  -1625980.31447                  21816522.8984
        51.0004         39.0004
  21221362.2044    1114592.70949    859480.83148                  21221361.2574
        52.5004         44.0004
 04  6 28 22  8 50.0000000  0  6G 1G11G14G16G20G25
  22578905.5474   -1456512.84249  -1131467.39747                  22578906.8204
        47.5004         35.5004
  22294650.2154    1021494.73349    786712.74247                  22294650.2354
        49.2504         36.5004
  24281530.5584    1663140.19449   1280085.17046                  24281531.4744
        42.0004         23.0004
  23470655.0184   -2413182.34049  -1872267.49647                  23470655.9894
        45.2504         28.2504
  21811393.3794   -2124115.96249  -1646988.81547                  21811392.8684
        50.5004         39.0004
  21224426.3884    1130694.90849    872028.00048                  21224425.6684
        53.0004         43.5004
 04  6 28 22  9  0.0000000  0  6G 1G11G14G16G20G25
  22575352.2214   -1475185.52449  -1146017.53347                  22575353.4074
        47.7504         35.0004
  22297491.1324    1036424.15849    798346.04147                  22297491.6894
        50.5004         36.5004
  24285656.9114    1684820.23149   1296978.70846                  24285657.6754
        41.2504         22.5004
  23464701.1004   -2444471.55449  -1896648.65447                  23464702.1484
        45.0004         28.2504
  21806267.3924   -2151054.18849  -1667979.62647                  21806266.3894
        50.2504         39.0004
  21227496.8734    1146830.93349    884601.51848                  21227495.7574
        53.0004         43.7504
 04  6 28 22  9 10.0000000  0  6G 1G11G14G16G20G25
  22571800.8794   -1493850.26849  -1160561.47347                  22571801.8194
        49.0004         35.2504
  22300339.5144    1051391.85949    810009.17247                  22300340.0494
        49.5004         36.0004
  24289781.1564    1706495.93549   1313868.85247                  24289781.8924
        41.7504         26.2504
  23458748.5854   -2475752.54749  -1921023.44147                  23458749.0484
        45.0004         29.5004
  21801145.1124   -2177970.71749  -1688953.54147                  21801144.3134
        50.5004         39.0004
  21230573.5684    1162999.70349    897200.55248                  21230572.9164
        52.7504         44.0004
 04  6 28 22  9 20.0000000  0  6G 1G11G14G16G20G25
  22568251.0814   -1512506.16249  -1175098.51747                  22568251.3524
        48.2504         35.2504
  22303194.9404    1066398.66049    821702.77247                  22303195.2534
        49.0004         36.5004
  24293905.6034    1728168.21449   1330756.31846                  24293905.8434
        41.2504         22.5004
  23452798.2004   -2507024.28549  -1945390.98847                  23452798.5134
        45.0004         29.2504
  21796027.4784   -2204864.45249  -1709909.68847                  21796026.9634
        51.0004         39.0004
  21233656.8844    1179202.01349    909825.71948                  21233655.9964
        52.0004         44.0004
 04  6 28 22  9 30.0000000  0  6G 1G11G14G16G20G25
  22564702.8274   -1531152.98149  -1189628.50547                  22564703.4494
        49.0004         35.7504
  22306058.4504    1081444.73249    833426.96147                  22306058.6064
        50.0004         36.5004
  24298028.3844    1749837.29049   1347641.28246                  24298029.6484
        39.7504         24.5004
  23446848.6174   -2538286.45549  -1969751.08547                  23446849.0844
        44.5004         29.5004
  21790914.1854   -2231735.04349  -1730847.80747                  21790913.5514
        51.0004         39.0004
  21236746.4934    1195438.10749    922477.22748                  21236745.8944
        52.7504         43.2504
 04  6 28 22  9 40.0000000  0  6G 1G11G14G16G20G25
  22561156.3874   -1549789.60149  -1204150.52947                  22561156.3844
        48.7504         35.2504
  22308929.3134    1096531.03749    845182.51847                  22308928.8954
        50.7504         36.7504
  24302152.3674    1771504.29449   1364524.60946                  24302152.4334
        40.2504         22.7504
  23440902.0104   -2569537.72749  -1994102.69947                  23440902.0004
        45.0004         28.0004
  21785805.3594   -2258581.32649  -1751766.97447                  21785804.5814
        51.0004         39.2504
  21239842.7604    1211709.03249    935155.85348                  21239841.9064
        52.2504         43.5004
 04  6 28 22  9 50.0000000  0  6G 1G11G14G16G20G25
  22557611.1824   -1568417.91149  -1218666.08247                  22557611.8544
        48.0004         34.5004
  22311807.2984    1111655.71949    856967.96647                  22311807.7244
        50.0004         36.0004
  24306273.7934    1793167.33749   1381404.88946                  24306275.5864
        40.5004         22.2504
  23434956.5174   -2600779.95349  -2018447.25347                  23434957.3154
        45.0004         28.0004
  21780701.0344   -2285405.09649  -1772668.61347                  21780700.2644
        50.7504         39.0004
  21242945.5614    1228012.80549    947860.07348                  21242944.3934
        52.5004         43.2504
 04  6 28 22 10  0.0000000  0  6G 1G11G14G16G20G25
  22554067.6764   -1587037.37149  -1233174.74147                  22554068.4524
        47.7504         35.0004
  22314693.2324    1126819.30749    868783.73147                  22314693.0984
        50.0004         36.5004
  24310395.8544    1814826.99449   1398282.56646                  24310397.2234
        40.0004         22.7504
  23429012.9694   -2632012.32349  -2042784.12747                  23429014.2124
        45.0004         30.0004
  21775601.0884   -2312205.66849  -1793552.15848                  21775600.4464
        50.7504         39.5004
  21246054.2484    1244349.87549    960590.26048                  21246053.3474
        53.2504         44.2504
 04  6 28 22 10 10.0000000  0  6G 1G11G14G16G20G25
  22550526.4334   -1605648.04749  -1247676.55847                  22550526.9054
        48.2504         34.5004
  22317586.0334    1142021.56349    880629.62347                  22317586.2614
        50.0004         36.0004
  24314517.0704    1836483.20449   1415157.46646                  24314518.0204
        41.0004         22.5004
  23423071.7244   -2663234.88049  -2067113.33147                  23423073.0364
        44.5004         30.0004
  21770505.0854   -2338983.09949  -1814417.67547                  21770503.9704
        51.7504         39.0004
  21249169.1534    1260720.05349    973346.23748                  21249168.4874
        52.5004         43.7504
 04  6 28 22 10 20.0000000  0  6G 1G11G14G16G20G25
  22546986.8264   -1624248.14349  -1262170.11447                  22546987.8454
        48.0004         36.0004
  22320486.5894    1157264.27149    892507.06047                  22320486.8414
        50.2504         36.2504
  24318638.1034    1858137.76849   1432031.12946                  24318638.7894
        41.5004         23.7504
  23417132.7254   -2694445.73549  -2091433.46947                  23417133.2644
        45.5004         29.0004
  21765414.5804   -2365735.47149  -1835263.67148                  21765413.9544
        50.7504         39.7504
  21252291.0924    1277125.14149    986129.42248                  21252290.5234
        52.7504         44.0004
 04  6 28 22 10 30.0000000  0  6G 1G11G14G16G20G25
  22543448.6554   -1642840.76449  -1276657.85147                  22543449.9474
        48.2504         35.7504
  22323394.4654    1172544.21049    904413.47447                  22323394.5234
        49.7504         36.0004
  24322757.8284    1879787.65149   1448901.17446                  24322758.2864
        42.5004         24.7504
  23411194.3124   -2725647.80449  -2115746.71347                  23411195.8204
        44.7504         29.0004
  21760327.9114   -2392465.73949  -1856092.44548                  21760327.1424
        51.0004         39.7504
  21255418.8624    1293562.01149    998937.36448                  21255418.0614
        53.0004         43.7504
 04  6 28 22 10 40.0000000  0  6G 1G11G14G16G20G25
  22539912.7094   -1661425.03149  -1291139.08447                  22539913.0304
        48.7504         36.2504
  22326309.1164    1187862.13449    916349.51447                  22326309.2964
        49.5004         35.7504
  24326877.1434    1901433.70649   1465768.23346                  24326878.0084
        41.7504         24.7504
  23405259.4334   -2756840.07049  -2140052.34447                  23405259.8954
        45.5004         29.0004
  21755246.2254   -2419172.93249  -1876903.22948                  21755244.9444
        51.2504         39.5004
  21258552.8324    1310031.52549   1011770.74648                  21258552.0564
        52.5004         43.5004
 04  6 28 22 10 50.0000000  0  6G 1G11G14G16G20G25
  22536377.3294   -1680000.43849  -1305613.41847                  22536378.0464
        49.0004         36.0004
  22329231.1934    1203218.53249    928315.52647                  22329231.4104
        47.5004         35.7504
  24330995.8854    1923076.44649   1482632.67846                  24330996.2294
        42.7504         24.2504
  23399325.7654   -2788021.93049  -2164349.87147                  23399326.6854
        45.5004         29.7504
  21750168.1394   -2445856.48649  -1897695.59548                  21750166.9384
        51.5004         40.0004
  21261693.1894    1326534.03949   1024629.84548                  21261692.5614
        51.5004         43.2504
 04  6 28 22 11  0.0000000  0  6G 1G11G14G16G20G25
  22532844.6404   -1698566.29849  -1320080.30847                  22532845.6574
        48.5004         35.2504
  22332160.6504    1218614.05149    940312.02047                  22332160.6714
        47.2504         35.7504
  24335113.0604    1944716.63849   1499495.10946                  24335114.1724
        43.0004         23.2504
  23393394.2124   -2819192.58549  -2188638.64147                  23393394.3634
        46.0004         30.2504
  21745095.2274   -2472515.52849  -1918468.87548                  21745094.0834
        51.2504         39.5004
  21264840.1874    1343070.16249   1037515.13448                  21264839.5234
        51.7504         42.5004
 04  6 28 22 11 10.0000000  0  6G 1G11G14G16G20G25
  22529313.2284   -1717123.24249  -1334540.26147                  22529313.7964
        48.7504         36.2504
  22335097.8774    1234047.94549    952338.40847                  22335098.3094
        48.5004         36.2504
  24339231.0464    1966353.62649   1516355.10547                  24339231.4544
        42.5004         26.2504
  23387464.4984   -2850352.51749  -2212919.09247                  23387464.8944
        45.7504         29.7504
  21740026.3664   -2499150.62349  -1939223.48748                  21740025.7264
        51.0004         40.0004
  21267993.1514    1359639.21649   1050426.07548                  21267992.1294
        53.0004         43.7504
 04  6 28 22 11 20.0000000  0  6G 1G11G14G16G20G25
  22525784.2504   -1735670.53949  -1348992.69147                  22525784.1604
        49.0004         35.5004
  22338042.6194    1249520.89749    964395.24347                  22338042.4614
        49.7504         35.7504
  24343348.7154    1987988.05449   1533213.10147                  24343348.9744
        42.7504         26.5004
  23381537.1294   -2881500.89049  -2237190.53947                  23381537.7584
        45.7504         29.7504
  21734962.6954   -2525760.97149  -1959958.81748                  21734961.5734
        51.0004         39.5004
  21271152.5684    1376241.89049   1063363.22148                  21271150.9884
        52.7504         43.2504
 04  6 28 22 11 30.0000000  0  6G 1G11G14G16G20G25
  22522255.8604   -1754209.24449  -1363438.42047                  22522257.1874
        49.5004         36.0004
  22340993.8644    1265031.71349    976481.56947                  22340994.0094
        50.0004         35.5004
  24347464.1174    2009618.99049   1550068.35946                  24347465.2984
        42.5004         24.7504
  23375611.8844   -2912638.63049  -2261453.65447                  23375612.5404
        46.0004         30.2504
  21729903.7074   -2552347.52949  -1980675.60548                  21729902.7614
        51.2504         39.5004
  21274318.1204    1392877.00049   1076325.63648                  21274317.3304
        52.7504         44.0004
 04  6 28 22 11 40.0000000  0  6G 1G11G14G16G20G25
  22518729.6264   -1772740.92249  -1377878.67647                  22518730.1224
        48.2504         35.7504
  22343952.0844    1280578.80849    988596.18347                  22343952.5664
        49.7504         36.0004
  24351579.2524    2031244.92949   1566919.71447                  24351580.9994
        42.7504         26.2504
  23369688.1534   -2943767.09649  -2285709.57347                  23369688.8204
        45.7504         30.5004
  21724848.5254   -2578911.74149  -2001374.97048                  21724847.3814
        51.0004         39.7504
  21277489.3814    1409542.97449   1089312.10748                  21277488.4954
        53.2504         43.5004
 04  6 28 22 11 50.0000000  0  6G 1G11G14G16G20G25
  22515205.1314   -1791262.35649  -1392310.95147                  22515205.5754
        48.0004         35.2504
  22346918.2644    1296165.39449   1000741.55047                  22346918.6064
        50.0004         35.7504
  24355693.9374    2052869.08049   1583769.66646                  24355695.4154
        42.0004         24.7504
  23363766.7344   -2974883.01949  -2309955.72247                  23363767.3214
        45.2504         29.7504
  21719798.4024   -2605450.24449  -2022054.32248                  21719797.5014
        51.5004         39.5004
  21280667.4484    1426242.94049   1102325.05748                  21280666.1624
        53.0004         43.7504
 04  6 28 22 12  0.0000000  0  6G 1G11G14G16G20G25
  22511682.1134   -1809774.64249  -1406736.09647                  22511682.8544
        48.0004         35.7504
  22349892.0324    1311790.17949   1012916.69647                  22349892.1064
        50.0004         36.7504
  24359808.5374    2074490.29449   1600617.36247                  24359809.9044
        41.0004         25.7504
  23357847.7724   -3005987.38649  -2334192.84947                  23357848.5024
        45.5004         30.2504
  21714752.9724   -2631964.15049  -2042714.49048                  21714751.7694
        50.7504         39.5004
  21283851.6084    1442975.69149   1115363.56148                  21283850.4634
        52.5004         44.0004
 04  6 28 22 12 10.0000000  0  6G 1G11G14G16G20G25
  22508160.8854   -1828277.62349  -1421153.98147                  22508162.3584
        49.0004         36.0004
  22352872.5964    1327453.40449   1025121.79347                  22352872.3214
        50.0004         36.0004
  24363922.2384    2096108.79049   1617462.89946                  24363923.2834
        41.5004         24.7504
  23351931.2424   -3037079.87249  -2358420.74147                  23351931.5314
        46.0004         31.0004
  21709712.2554   -2658453.12449  -2063355.25248                  21709711.2014
        51.5004         39.5004
  21287041.9644    1459741.37049   1128427.72348                  21287040.9824
        53.0004         43.7504
 04  6 28 22 12 20.0000000  0  6G 1G11G14G16G20G25
  22504642.2634   -1846770.83949  -1435564.26647                  22504643.7164
        48.7504         36.0004
  22355860.7154    1343155.28649   1037357.01447                  22355860.1824
        50.2504         36.0004
  24368035.6414    2117725.03049   1634306.70146                  24368037.4434
        41.0004         25.5004
  23346016.8854   -3068159.95149  -2382638.93947                  23346017.8254
        46.5004         31.0004
  21704676.5234   -2684916.63449  -2083976.15348                  21704675.3124
        51.2504         39.7504
  21290238.6874    1476540.36849   1141517.83948                  21290238.1534
        53.0004         43.7504
 04  6 28 22 12 30.0000000  0  6G 1G11G14G16G20G25
  22501124.6134   -1865255.72749  -1449968.05347                  22501125.8894
        49.2504         36.2504
  22358856.0144    1358894.19949   1049621.10147                  22358855.5814
        50.2504         36.0004
  24372148.6914    2139337.60449   1651147.64447                  24372149.9304
        41.5004         26.2504
  23340104.7124   -3099228.90949  -2406848.47647                  23340105.0924
        46.0004         30.7504
  21699645.5094   -2711356.02549  -2104578.26848                  21699644.3444
        51.0004         40.2504
  21293441.5134    1493371.19649   1154632.77248                  21293440.7744
        53.0004         43.5004
 04  6 28 22 12 40.0000000  0  6G 1G11G14G16G20G25
  22497609.2664   -1883730.74949  -1464364.15547                  22497609.9374
        48.5004         36.7504
  22361857.8164    1374671.71249   1061915.25247                  22361857.9254
        47.5004         36.0004
  24376260.7104    2160948.07249   1667986.94646                  24376262.7064
        40.7504         25.0004
  23334194.6494   -3130285.08449  -2431048.07247                  23334195.1814
        46.0004         30.2504
  21694619.0874   -2737769.69649  -2125160.34048                  21694617.9014
        51.7504         39.7504
  21296650.8824    1510235.26249   1167773.59648                  21296649.7764
        52.5004         43.5004
 04  6 28 22 12 50.0000000  0  6G 1G11G14G16G20G25
  22494094.7514   -1902197.51749  -1478753.83447                  22494095.8884
        49.0004         36.2504
  22364867.2594    1390486.13049   1074238.15547                  22364867.3954
        49.0004         36.0004
  24380372.0004    2182554.81249   1684823.29246                  24380373.6044
        41.0004         24.5004
  23328287.3564   -3161329.89249  -2455238.79047                  23328287.9534
        46.5004         31.5004
  21689597.1524   -2764159.13649  -2145723.53748                  21689595.7284
        51.0004         39.7504
  21299865.8694    1527130.90949   1180939.02948                  21299864.4834
        52.5004         43.0004
 04  6 28 22 13  0.0000000  0  6G 1G11G14G16G20G25
  22490582.9464   -1920656.37649  -1493137.36147                  22490583.4044
        49.2504         35.7504
  22367883.6334    1406337.09349   1086589.54347                  22367883.8354
        49.5004         36.0004
  24384484.0664    2204157.42049   1701656.51947                  24384484.5114
        41.0004         26.0004
  23322382.1154   -3192363.61249  -2479420.87747                  23322382.0994
        46.0004         31.2504
  21684579.6584   -2790524.57549  -2166268.01648                  21684579.1824
        50.5004         39.7504
  21303086.8074    1544057.69449   1194128.73048                  21303085.8054
        52.7504         43.7504
 04  6 28 22 13 10.0000000  0  6G 1G11G14G16G20G25
  22487071.2874   -1939106.39249  -1507513.99047                  22487071.7544
        49.5004         36.5004
  22370906.7424    1422225.47649   1098970.09347                  22370907.4224
        48.7504         35.5004
  24388594.1314    2225756.91549   1718487.28346                  24388594.7434
        42.0004         24.7504
  23316478.6254   -3223385.16549  -2503593.49047                  23316478.9864
        46.5004         31.0004
  21679567.0754   -2816864.95149  -2186792.98248                  21679566.4874
        51.0004         39.7504
  21306314.0044    1561016.53149   1207343.39848                  21306313.0664
        52.5004         43.5004
 04  6 28 22 13 20.0000000  0  6G 1G11G14G16G20G25
  22483562.1964   -1957547.26449  -1521883.47447                  22483563.0574
        48.7504         36.5004
  22373937.9014    1438151.49649   1111379.95047                  22373938.3724
        49.5004         35.5004
  24392703.6144    2247353.73549   1735315.87146                  24392704.4004
        42.0004         25.0004
  23310577.5574   -3254394.12049  -2527756.25047                  23310578.3904
        46.0004         29.7504
  21674559.9004   -2843179.85649  -2207298.08948                  21674559.2614
        51.7504         39.7504
  21309547.2564    1578007.63449   1220583.21348                  21309546.3614
        52.7504         43.2504
 04  6 28 22 13 30.0000000  0  6G 1G11G14G16G20G25
  22480054.3534   -1975979.88949  -1536246.53447                  22480055.3104
        48.7504         36.0004
  22376975.3734    1454114.19949   1123818.41847                  22376975.2864
        49.5004         35.5004
  24396812.3054    2268946.86949   1752141.73546                  24396813.9774
        41.5004         25.2504
  23304678.9374   -3285391.21449  -2551909.80747                  23304679.6584
        45.7504         30.2504
  21669556.6614   -2869470.16249  -2227784.02648                  21669555.9994
        51.5004         39.5004
  21312786.5704    1595030.04449   1233847.42948                  21312785.2614
        52.2504         43.2504
 04  6 28 22 13 40.0000000  0  6G 1G11G14G16G20G25
  22476548.8564   -1994403.30449  -1550602.44647                  22476549.2924
        48.2504         36.2504
  22380020.6374    1470114.43549   1136286.10447                  22380020.3334
        50.0004         36.5004
  24400921.8134    2290537.28749   1768965.39447                  24400922.3234
        42.0004         26.0004
  23298782.8314   -3316375.35149  -2576053.27647                  23298783.4764
        46.7504         30.0004
  21664559.0844   -2895734.75049  -2248249.93348                  21664558.0364
        51.2504         40.0004
  21316031.8564    1612084.70549   1247136.76148                  21316030.6064
        52.5004         43.7504
 04  6 28 22 13 50.0000000  0  6G 1G11G14G16G20G25
  22473044.3964   -2012817.73149  -1564951.32447                  22473045.1664
        48.7504         35.7504
  22383071.8344    1486151.93449   1148782.84747                  22383071.9304
        49.7504         36.0004
  24405029.1354    2312124.73649   1785786.80146                  24405030.5794
        42.0004         25.0004
  23292889.6794   -3347346.70849  -2600186.75547                  23292889.4674
        46.5004         29.7504
  21659565.5724   -2921973.75949  -2268695.89848                  21659565.1164
        50.7504         39.5004
  21319283.3124    1629171.27849   1260450.97148                  21319282.3904
        53.0004         43.5004
 04  6 28 22 14  0.0000000  0  6G 1G11G14G16G20G25
  22469541.7774   -2031223.51549  -1579293.48947                  22469542.4814
        48.5004         36.2504
  22386130.5244    1502226.24049   1161308.25547                  22386130.8454
        48.2504         36.0004
  24409137.0434    2333709.00949   1802605.68147                  24409137.9774
        41.0004         26.0004
  23286997.8384   -3378305.44649  -2624310.40847                  23286998.4394
        46.0004         29.5004
  21654577.2784   -2948187.40849  -2289122.11548                  21654576.4724
        50.7504         40.5004
  21322541.0224    1646289.40949   1273789.77548                  21322540.0034
        52.2504         43.2504
 04  6 28 22 14 10.0000000  0  6G 1G11G14G16G20G25
  22466041.3404   -2049620.28749  -1593628.63447                  22466042.1474
        49.0004         36.5004
  22389196.8414    1518337.56949   1173862.53547                  22389196.6184
        47.5004         35.0004
  24413243.6144    2355290.45949   1819422.35846                  24413244.2164
        41.5004         25.5004
  23281109.3284   -3409251.04949  -2648423.85847                  23281109.3104
        47.0004         30.5004
  21649594.0184   -2974375.23549  -2309528.19548                  21649593.2184
        51.0004         39.5004
  21325804.2414    1663439.37949   1287153.38048                  21325803.2664
        52.0004         42.7504
 04  6 28 22 14 20.0000000  0  6G 1G11G14G16G20G25
  22462541.6764   -2068009.83249  -1607958.14447                  22462542.2704
        48.5004         36.7504
  22392269.6514    1534484.16349   1186444.27847                  22392269.7324
        49.5004         35.5004
  24417349.5334    2376867.35749   1836235.50946                  24417350.4414
        40.5004         25.2504
  23275222.9564   -3440185.20649  -2672528.38347                  23275222.7694
        46.5004         29.5004
  21644615.0814   -3000538.92849  -2329915.48547                  21644614.6764
        51.2504         39.2504
  21329073.6214    1680619.26449   1300540.29548                  21329072.9214
        53.0004         43.0004
 04  6 28 22 14 30.0000000  0  6G 1G11G14G16G20G25
  22459044.1714   -2086390.18949  -1622280.47947                  22459044.4854
        49.7504         36.5004
  22395349.0374    1550667.87649   1199054.95247                  22395349.2994
        49.5004         35.5004
  24421455.3744    2398441.62449   1853046.60247                  24421456.2584
        41.7504         26.2504
  23269338.6294   -3471105.77949  -2696622.28747                  23269339.0974
        46.5004         29.5004
  21639641.5334   -3026676.41249  -2350282.34548                  21639640.8854
        51.5004         39.5004
  21332349.1744    1697830.99049   1313952.03548                  21332347.8114
        52.7504         43.5004
 04  6 28 22 14 40.0000000  0  6G 1G11G14G16G20G25
  22455548.1544   -2104761.71549  -1636595.94247                  22455549.1124
        48.5004         36.5004
  22398435.7804    1566888.27349   1211694.21147                  22398436.0944
        49.7504         35.2504
  24425560.0384    2420012.92649   1869855.38046                  24425560.8424
        39.7504         22.7504
  23263456.8214   -3502013.05749  -2720705.85447                  23263457.4234
        46.0004         29.5004
  21634672.5754   -3052787.95849  -2370628.99648                  21634671.5844
        51.0004         39.5004
  21335630.2244    1715074.20249   1327388.29348                  21335629.3904
        53.0004         43.0004
 04  6 28 22 14 50.0000000  0  6G 1G11G14G16G20G25
  22452053.6314   -2123124.99749  -1650904.98447                  22452053.8854
        49.5004         36.5004
  22401529.4794    1583144.60449   1224361.45847                  22401529.8754
        49.5004         35.2504
  24429663.4224    2441580.67549   1886661.40446                  24429665.0444
        40.5004         24.0004
  23257577.8774   -3532907.54549  -2744779.43247                  23257578.5804
        46.0004         30.2504
  21629708.6404   -3078874.04749  -2390955.81648                  21629707.3764
        51.2504         39.5004
  21338917.2054    1732348.20049   1340848.54548                  21338916.6104
        53.0004         43.2504
 04  6 28 22 15  0.0000000  0  6G 1G11G14G16G20G25
  22448561.0024   -2141480.66149  -1665208.09347                  22448561.3334
        49.5004         36.5004
  22404629.1014    1599436.22249   1237056.21047                  22404629.4834
        49.0004         35.5004
  24433767.1174    2463144.31849   1903464.18746                  24433769.0674
        40.5004         23.5004
  23251701.6834   -3563789.69349  -2768843.42047                  23251701.5824
        46.0004         29.7504
  21624749.5434   -3104935.18549  -2411263.18048                  21624748.4764
        51.2504         39.5004
  21342210.4284    1749652.29249   1354332.24148                  21342209.5444
        52.7504         43.0004
 04  6 28 22 15 30.0000000  4  2
2.000000                                                    COMMENT
END OF STATIC OBSERVATION                                   COMMENT
 04  6 28 22 15 30.0000000  0  6G 1G11G14G16G20G25
  22438092.3054   -2196493.51449  -1708075.20847                  22438092.7074
        49.0004         35.7504
  22413971.8794    1648531.16649   1275311.96147                  22413971.7334
        49.0004         36.0004
  24446074.5994    2527819.04549   1953860.00746                  24446075.8234
        39.7504         23.0004
  23234086.8404   -3656352.14649  -2840969.91347                  23234087.4974
        46.0004         29.5004
  21609901.7124   -3182959.61049  -2472061.41248                  21609900.8964
        51.2504         40.2504
  21352124.6234    1801752.78249   1394930.01648                  21352123.7754
        52.7504         44.0004
 04  6 28 22 15 40.0000000  0  6G 1G11G14G16G20G25
  22434606.1354   -2214812.50449  -1722349.74447                  22434607.0864
        49.2504         36.0004
  22417099.8884    1664969.66449   1288121.17147                  22417100.2254
        49.7504         36.0004
  24450175.9304    2549372.53149   1970654.88647                  24450177.3474
        40.0004         26.2504
  23228221.1064   -3687177.36249  -2864989.52147                  23228221.7294
        45.5004         30.7504
  21604962.8654   -3208913.87649  -2492285.50748                  21604961.9964
        51.0004         39.7504
  21355441.6634    1819182.65249   1408511.72948                  21355440.7924
        53.5004         43.2504
 04  6 28 22 15 50.0000000  0  6G 1G11G14G16G20G25
  22431121.4394   -2233123.62449  -1736618.12047                  22431122.1814
        48.7504         36.0004
  22420235.1144    1681443.34149   1300957.78047                  22420235.0534
        50.2504         35.5004
  24454276.9504    2570922.22149   1987446.81147                  24454278.3954
        40.5004         25.7504
  23222358.3824   -3717989.32549  -2888998.82447                  23222357.9474
        46.5004         30.0004
  21600028.6804   -3234842.43549  -2512489.56948                  21600027.7104
        51.0004         39.7504
  21358763.8314    1836642.51349   1422116.80648                  21358762.4594
        52.7504         43.2504
 04  6 28 22 16  0.0000000  0  6G 1G11G14G16G20G25
  22427638.8794   -2251425.84749  -1750879.59147                  22427639.2684
        48.5004         35.5004
  22423376.7854    1697953.17249   1313822.57547                  22423376.9924
        49.7504         34.5004
  24458377.9214    2592469.16349   2004236.65446                  24458378.5884
        40.5004         25.5004
  23216497.1544   -3748786.83149  -2912996.83347                  23216498.1104
        46.0004         29.7504
  21595099.6454   -3260744.20249  -2532672.75347                  21595098.7454
        51.0004         39.2504
  21362092.2324    1854133.40449   1435746.06648                  21362091.2804
        52.7504         43.0004
 04  6 28 22 16 10.0000000  0  6G 1G11G14G16G20G25
  22424157.6264   -2269718.78349  -1765133.81047                  22424158.2684
        49.7504         36.7504
  22426525.0084    1714499.42349   1326715.73947                  22426525.7894
        49.5004         35.5004
  24462477.5934    2614013.72949   2021024.58146                  24462478.6484
        39.5004         22.5004
  23210639.6714   -3779569.48649  -2936983.30447                  23210639.7694
        46.0004         31.0004
  21590175.7384   -3286618.71149  -2552834.69148                  21590175.1754
        51.0004         40.0004
  21365426.4474    1871655.63649   1449399.76148                  21365425.5614
        52.7504         43.5004
 04  6 28 22 16 20.0000000  0  6G 1G11G14G16G20G25
  22420678.1694   -2288004.58849  -1779382.47047                  22420678.6074
        49.0004         36.5004
  22429680.1894    1731079.83749   1339635.53547                  22429680.3564
        49.7504         35.0004
  24466575.4534    2635553.80649   2037809.03247                  24466577.4744
        40.5004         25.7504
  23204784.0884   -3810339.25349  -2960959.70847                  23204784.7204
        46.5004         31.5004
  21585257.0064   -3312467.99149  -2572976.99048                  21585255.9904
        51.2504         40.0004
  21368766.6884    1889206.89649   1463076.06448                  21368765.6024
        52.7504         43.2504
 04  6 28 22 16 30.0000000  0  6G 1G11G14G16G20G25
  22417200.1254   -2306281.82749  -1793624.46147                  22417200.8014
        49.2504         37.2504
  22432842.6274    1747695.80049   1352583.02347                  22432841.9434
        49.0004         34.7504
  24470674.6434    2657090.78649   2054591.06946                  24470676.1204
        40.2504         24.7504
  23198931.6924   -3841094.59049  -2984924.89147                  23198931.7004
        46.5004         31.5004
  21580343.2114   -3338290.51149  -2593098.42248                  21580342.3274
        51.2504         40.5004
  21372112.0174    1906788.49049   1476775.99748                  21372111.0424
        52.2504         44.0004
 04  6 28 22 16 40.0000000  0  6G 1G11G14G16G20G25
  22413723.5364   -2324550.10549  -1807859.47747                  22413724.4504
        49.2504         36.7504
  22436010.9664    1764347.61149   1365558.44047                  22436011.2974
        50.0004         35.0004
  24474772.1424    2678625.16449   2071371.05046                  24474773.2834
        39.5004         22.5004
  23193081.8894   -3871834.96549  -3008878.39547                  23193082.6084
        46.5004         31.0004
  21575434.6184   -3364085.82349  -2613198.66048                  21575433.3004
        51.2504         40.5004
  21375463.9124    1924400.82749   1490499.88548                  21375462.4034
        53.0004         42.7504
 04  6 28 22 16 50.0000000  0  6G 1G11G14G16G20G25
  22410248.5004   -2342810.58149  -1822088.39247                  22410249.5234
        48.7504         36.7504
  22439186.0704    1781034.09449   1378560.88947                  22439186.4724
        50.0004         35.0004
  24478869.1954    2700155.73049   2088148.13846                  24478870.8564
        40.0004         21.7504
  23187234.8524   -3902561.37949  -3032821.01647                  23187235.1634
        46.0004         31.2504
  21570530.6034   -3389854.91449  -2633278.45148                  21570530.0474
        50.7504         40.0004
  21378820.6564    1942042.69049   1504246.79448                  21378819.2844
        53.2504         43.0004
 04  6 28 22 17  0.0000000  0  6G 1G11G14G16G20G25
  22406774.6224   -2361063.50049  -1836311.43447                  22406775.9814
        48.0004         36.0004
  22442368.2604    1797754.86949   1391590.04347                  22442368.4104
        50.0004         35.2504
  24482965.7794    2721682.40349   2104922.12146                  24482967.2254
        38.7504         22.5004
  23181390.4654   -3933273.93849  -3056752.85547                  23181391.1374
        45.7504         31.5004
  21565631.9744   -3415597.93249  -2653337.95148                  21565631.1734
        52.0004         39.7504
  21382183.4244    1959713.81049   1518016.49348                  21382182.4494
        52.2504         43.0004
 04  6 28 22 17 10.0000000  0  6G 1G11G14G16G20G25
  22403303.6034   -2379306.25749  -1850526.55247                  22403304.4164
        48.5004         36.5004
  22445556.9134    1814512.46049   1404647.88647                  22445556.8564
        49.7504         35.2504
  24487062.5944    2743207.59749   2121694.99346                  24487063.3574
        39.5004         21.7504
  23175548.9314   -3963969.98549  -3080671.82947                  23175549.6694
        45.7504         30.5004
  21560738.9704   -3441312.18749  -2673375.02347                  21560737.5764
        52.0004         39.2504
  21385552.4004    1977416.67749   1531810.93248                  21385551.1144
        52.7504         42.5004
 04  6 28 22 17 20.0000000  0  6G 1G11G14G16G20G25
  22399833.4924   -2397541.23949  -1864735.61347                  22399834.7404
        49.5004         36.5004
  22448752.5714    1831304.35549   1417732.47447                  22448752.6504
        50.0004         35.0004
  24491157.7154    2764729.02249   2138464.88246                  24491158.5904
        39.0004         21.7504
  23169710.6484   -3994651.74149  -3104579.65247                  23169711.3344
        46.5004         31.7504
  21555850.7124   -3467000.00849  -2693391.49048                  21555849.6154
        51.2504         39.7504
  21388926.4804    1995148.77849   1545628.14648                  21388925.9834
        52.2504         43.0004
 04  6 28 22 17 30.0000000  0  6G 1G11G14G16G20G25
  22396365.7154   -2415766.05149  -1878936.76347                  22396366.5594
        48.5004         35.7504
  22451955.2894    1848132.96049   1430845.65947                  22451954.9194
        49.5004         34.5004
  24495252.3554    2786249.16349   2155233.82946                  24495253.6584
        39.5004         21.0004
  23163875.0324   -4025316.69349  -3128474.39347                  23163876.1654
        46.2504         31.2504
  21550967.4824   -3492658.90349  -2713385.42348                  21550966.6804
        50.7504         40.7504
  21392307.1504    2012912.50749   1559470.01048                  21392305.6704
        52.7504         43.0004
 04  6 28 22 17 40.0000000  0  6G 1G11G14G16G20G25
  22392899.2414   -2433982.49849  -1893131.38247                  22392900.1104
        49.5004         36.5004
  22455164.0964    1864996.39249   1443985.98647                  22455163.5274
        49.2504         34.7504
  24499346.3274    2807766.19549   2172000.31746                  24499348.6184
        38.5004         20.5004
  23158043.1874   -4055966.47749  -3152357.31547                  23158043.1904
        46.7504         31.5004
  21546090.3284   -3518290.47749  -2733358.07748                  21546089.2244
        51.5004         40.5004
  21395693.0734    2030705.97449   1573335.05048                  21395692.2014
        52.5004         42.7504
 04  6 28 22 17 50.0000000  0  6G 1G11G14G16G20G25
  22389433.8474   -2452190.24049  -1907319.21447                  22389435.3994
        48.7504         36.0004
  22458379.3214    1881894.88349   1457153.62847                  22458378.9834
        49.5004         34.7504
  24503441.6344    2829280.46049   2188764.64446                  24503442.5034
        38.5004         21.0004
  23152212.9454   -4086600.67749  -3176228.10147                  23152213.1944
        46.2504         31.0004
  21541218.0724   -3543894.28949  -2753309.09848                  21541217.0764
        51.0004         41.0004
  21399084.7474    2048529.47249   1587223.48348                  21399083.5274
        53.0004         43.2504
 04  6 28 22 18  0.0000000  0  5G 1G11G16G20G25
  22385970.7814   -2470390.75349  -1921501.41447                  22385971.6104
        49.5004         35.7504
  22461602.0054    1898826.85649   1470347.35647                  22461601.8794
        49.7504         35.7504
  23146386.2514   -4117220.59549  -3200087.74447                  23146386.0684
        46.0004         30.5004
  21536350.9314   -3569471.77949  -2773239.59048                  21536349.8394
        51.2504         40.7504
  21402481.8594    2066381.43149   1601134.09948                  21402481.0274
        52.2504         43.0004
 04  6 28 22 18 10.0000000  0  5G 1G11G16G20G25
  22382508.8584   -2488582.66649  -1935676.92147                  22382509.6274
        49.0004         36.0004
  22464830.7414    1915793.58249   1483568.16847                  22464830.9174
        49.5004         36.0004
  23140562.1994   -4147824.77149  -3223935.12447                  23140562.4694
        46.0004         31.2504
  21531489.0074   -3595021.48849  -2793148.45048                  21531487.4484
        51.5004         40.2504
  21405884.4284    2084263.18049   1615067.92348                  21405883.7414
        52.7504         43.0004
 04  6 28 22 18 20.0000000  0  5G 1G11G16G20G25
  22379048.5334   -2506767.32649  -1949846.75447                  22379048.7264
        49.5004         36.0004
  22468065.5294    1932793.63349   1496814.94347                  22468065.7164
        49.0004         35.5004
  23134741.9094   -4178414.44649  -3247771.21347                  23134741.4644
        45.5004         31.7504
  21526632.1514   -3620544.69249  -2813036.65848                  21526630.9274
        51.2504         40.2504
  21409292.4874    2102173.27549   1629023.83048                  21409292.0184
        52.5004         42.7504
 04  6 28 22 18 30.0000000  0  5G 1G11G16G20G25
  22375589.8404   -2524943.97849  -1964010.36947                  22375590.3094
        49.2504         36.2504
  22471307.1454    1949827.72949   1510088.23247                  22471306.6834
        48.2504         35.0004
  23128923.6004   -4208988.67449  -3271595.26247                  23128923.4034
        45.7504         31.7504
  21521780.1644   -3646040.50849  -2832903.52048                  21521779.2194
        51.5004         40.7504
  21412706.3104    2120112.40449   1643002.36648                  21412705.4814
        51.7504         43.0004
 04  6 28 22 18 40.0000000  0  5G 1G11G16G20G25
  22372132.3194   -2543111.62549  -1978166.96447                  22372132.7834
        49.2504         36.2504
  22474555.0404    1966896.77049   1523388.78247                  22474554.9774
        47.2504         34.0004
  23123108.6564   -4239546.39149  -3295406.44647                  23123108.9824
        46.0004         32.0004
  21516934.1554   -3671507.80949  -2852748.16348                  21516932.9794
        51.7504         40.2504
  21416125.3874    2138081.46849   1657004.23548                  21416124.6694
        51.5004         43.0004
 04  6 28 22 18 50.0000000  0  5G 1G11G16G20G25
  22368677.0094   -2561270.12349  -1992316.43447                  22368677.5854
        49.2504         36.5004
  22477810.4844    1984000.80149   1536716.57347                  22477809.5784
        48.2504         35.0004
  23117296.9544   -4270087.35449  -3319204.55847                  23117297.7794
        46.2504         31.7504
  21512093.4764   -3696946.38249  -2872570.41848                  21512092.1474
        52.0004         40.2504
  21419550.8104    2156080.59449   1671029.51948                  21419550.4324
        52.5004         43.2504
 04  6 28 22 19  0.0000000  0  5G 1G11G16G20G25
  22365223.1834   -2579420.61149  -2006459.65647                  22365223.3484
        48.7504         36.0004
  22481070.9834    2001138.61549   1550070.70847                  22481070.7284
        47.7504         34.5004
  23111487.4594   -4300612.54049  -3342990.38847                  23111488.5254
        45.7504         32.0004
  21507257.7594   -3722357.23649  -2892371.08448                  21507256.9884
        51.7504         40.7504
  21422981.7354    2174108.49349   1685077.22248                  21422980.8124
        51.5004         43.0004
 04  6 28 22 19 10.0000000  0  5G 1G11G16G20G25
  22361770.5124   -2597563.85249  -2020597.24447                  22361770.4794
        49.5004         35.7504
  22484338.5964    2018309.35149   1563450.47847                  22484338.5804
        48.7504         35.2504
  23105682.1094   -4331122.54049  -3366764.38147                  23105681.9284
        45.2504         31.2504
  21502427.1624   -3747741.04549  -2912150.65748                  21502426.0464
        51.7504         41.0004
  21426417.7154    2192164.44349   1699146.78248                  21426416.6644
        52.2504         43.0004
 04  6 28 22 19 20.0000000  0  5G 1G11G16G20G25
  22358319.1164   -2615699.89249  -2034729.20147                  22358319.8324
        49.0004         36.2504
  22487612.7984    2035512.91149   1576855.83847                  22487612.3504
        49.2504         35.5004
  23099879.0264   -4361617.27449  -3390526.47647                  23099879.4644
        45.7504         31.0004
  21497602.2434   -3773097.74649  -2931909.12448                  21497600.7954
        51.2504         40.5004
  21429858.6604    2210248.27449   1713238.07748                  21429858.0914
        52.0004         43.0004
 04  6 28 22 19 30.0000000  0  5G 1G11G16G20G25
  22354869.6234   -2633826.74849  -2048854.01847                  22354870.2174
        49.2504         36.2504
  22490892.8104    2052751.14749   1590288.21447                  22490892.7464
        46.5004         35.0004
  23094079.3824   -4392094.69549  -3414275.10147                  23094079.6824
        45.7504         31.5004
  21492782.2994   -3798425.29349  -2951644.87448                  21492781.2444
        51.2504         41.0004
  21433305.5124    2228361.88749   1727352.57548                  21433305.1194
        51.0004         42.2504
 04  6 28 22 19 40.0000000  0  5G 1G11G16G20G25
  22351422.2474   -2651944.62849  -2062971.82847                  22351422.9664
        48.7504         36.2504
  22494179.6514    2070023.81349   1603747.40547                  22494179.9924
        49.0004         34.7504
  23088282.4484   -4422554.77249  -3438010.20647                  23088283.4944
        46.0004         31.5004
  21487968.2764   -3823723.79849  -2971357.97948                  21487966.6624
        51.7504         40.0004
  21436758.1824    2246504.98549   1741490.03348                  21436756.9944
        51.5004         42.2504
 04  6 28 22 19 50.0000000  0  5G 1G11G16G20G25
  22347975.9644   -2670054.04949  -2077083.06347                  22347976.2614
        49.5004         36.5004
  22497472.9514    2087330.26449   1617232.95247                  22497472.8504
        49.2504         35.5004
  23082490.0964   -4452998.00249  -3461732.17247                  23082490.5734
        45.7504         32.0004
  21483159.6914   -3848993.68449  -2991048.79148                  21483158.5724
        51.5004         40.5004
  21440216.2004    2264677.03149   1755650.07748                  21440215.2094
        51.5004         43.0004
 04  6 28 22 20  0.0000000  0  5G 1G11G16G20G25
  22344531.5734   -2688154.91149  -2091187.59747                  22344532.4304
        50.0004         36.7504
  22500772.7974    2104670.51949   1630744.82847                  22500772.5864
        47.7504         34.7504
  23076699.9164   -4483424.13449  -3485440.82647                  23076700.4724
        46.5004         32.0004
  21478356.4614   -3874234.72649  -3010717.12448                  21478355.2474
        51.5004         40.5004
  21443679.5024    2282878.03149   1769832.67148                  21443679.1444
        51.5004         43.0004
 04  6 28 22 20 10.0000000  0  5G 1G11G16G20G25
  22341088.1074   -2706248.59849  -2105286.56747                  22341089.5404
        49.2504         36.5004
  22504078.7474    2122043.16149   1644281.93247                  22504078.5734
        47.0004         35.2504
  23070913.2144   -4513834.43349  -3509137.13647                  23070913.4714
        46.2504         32.5004
  21473558.2184   -3899448.18049  -3030363.97048                  21473557.3564
        51.5004         40.5004
  21447148.3264    2301106.53649   1784036.68448                  21447147.9784
        51.0004         43.0004
 04  6 28 22 20 20.0000000  0  5G 1G11G16G20G25
  22337646.8344   -2724334.28649  -2119379.29647                  22337647.2284
        48.5004         36.2504
  22507391.2604    2139449.01049   1657844.93347                  22507390.8514
        49.7504         35.0004
  23065129.7434   -4544227.91349  -3532820.32947                  23065129.8704
        45.7504         32.0004
  21468766.0144   -3924633.08949  -3049988.56848                  21468764.7994
        51.5004         41.0004
  21450622.5494    2319363.36949   1798262.78848                  21450622.3374
        51.5004         43.5004
 04  6 28 22 20 30.0000000  0  5G 1G11G16G20G25
  22334206.8854   -2742411.87149  -2133465.71647                  22334207.3064
        48.7504         36.0004
  22510709.2654    2156887.96949   1671433.71447                  22510709.2554
        49.5004         35.2504
  23059349.3314   -4574604.38649  -3556490.28647                  23059349.1434
        46.0004         32.0004
  21463978.6964   -3949789.30349  -3069590.80948                  21463977.4914
        52.2504         40.7504
  21454102.1704    2337648.51549   1812510.94248                  21454101.4184
        52.5004         43.2504
 04  6 28 22 20 40.0000000  0  5G 1G11G16G20G25
  22330768.1254   -2760481.15949  -2147545.67247                  22330769.0014
        48.5004         36.2504
  22514034.2434    2174360.16349   1685048.38747                  22514034.4294
        49.2504         35.0004
  23053571.5374   -4604963.49749  -3580146.71747                  23053571.8424
        46.2504         32.5004
  21459197.2614   -3974916.53449  -3089170.46348                  21459196.4384
        51.2504         41.2504
  21457587.2804    2355962.09949   1826781.26248                  21457586.6224
        52.0004         43.0004
 04  6 28 22 20 50.0000000  0  5G 1G11G16G20G25
  22327331.0414   -2778542.56249  -2161619.47247                  22327332.0814
        49.2504         35.2504
  22517365.5254    2191865.06249   1698688.56647                  22517365.2214
        48.0004         34.7504
  23047797.6944   -4635305.60249  -3603789.87947                  23047797.7864
        45.5004         32.0004
  21454421.1864   -4000015.01049  -3108727.71448                  21454419.8564
        51.0004         40.7504
  21461077.6134    2374303.61449   1841073.34248                  21461077.0464
        52.0004         42.2504
 04  6 28 22 21  0.0000000  0  5G 1G11G16G20G25
  22323895.6034   -2796595.59649  -2175686.76047                  22323896.4854
        49.2504         35.7504
  22520702.6454    2209403.17749   1712354.61047                  22520701.8074
        44.2504         35.0004
  23042026.8884   -4665630.03149  -3627419.28747                  23042027.4654
        46.0004         32.2504
  21449650.7194   -4025084.21049  -3128262.15548                  21449649.5194
        51.7504         41.5004
  21464573.6294    2392673.47749   1855387.51348                  21464572.6294
        49.7504         43.0004
 04  6 28 22 21 10.0000000  0  5G 1G11G16G20G25
  22320462.4724   -2814639.12049  -2189746.64347                  22320462.7484
        49.0004         36.0004
  22524046.6654    2226975.42649   1726047.25147                  22524046.6224
        47.2504         34.5004
  23036260.0484   -4695935.49849  -3651033.91547                  23036260.3984
        45.7504         32.5004
  21444885.7454   -4050122.94349  -3147772.84248                  21444884.7244
        51.5004         41.5004
  21468074.4574    2411072.71649   1869724.58248                  21468073.4274
        51.5004         42.5004
 04  6 28 22 21 20.0000000  0  5G 1G11G16G20G25
  22317030.1004   -2832673.97449  -2203799.74847                  22317030.6974
        48.7504         35.5004
  22527396.9244    2244580.96749   1739765.84447                  22527396.9214
        49.2504         34.7504
  23030497.0904   -4726222.70649  -3674634.30047                  23030497.1854
        46.5004         32.2504
  21440126.5454   -4075131.92749  -3167260.35448                  21440125.9434
        52.0004         41.2504
  21471580.9854    2429500.48549   1884083.87748                  21471580.2804
        51.5004         43.2504
 04  6 28 22 21 30.0000000  0  5G 1G11G16G20G25
  22313599.9424   -2850701.76349  -2217847.37947                  22313600.6284
        49.5004         36.5004
  22530753.1404    2262218.05949   1753509.01547                  22530753.3954
        49.2504         35.2504
  23024736.9064   -4756493.24249  -3698221.71847                  23024737.2434
        46.7504         32.0004
  21435373.3274   -4100112.70549  -3186725.88648                  21435372.0044
        51.5004         42.0004
  21475093.1904    2447955.14249   1898464.12048                  21475091.9634
        52.0004         43.0004
 04  6 28 22 21 40.0000000  0  5G 1G11G16G20G25
  22310171.2854   -2868722.07749  -2231889.17047                  22310170.9864
        49.2504         37.0004
  22534115.1214    2279887.06549   1767277.05747                  22534115.6914
        49.2504         34.7504
  23018979.9014   -4786746.45549  -3721795.62747                  23018980.0974
        45.5004         32.0004
  21430625.0474   -4125064.70649  -3206169.00048                  21430624.0024
        51.5004         41.5004
  21478610.2304    2466436.92149   1912865.50248                  21478609.1974
        52.5004         43.2504
 04  6 28 22 21 50.0000000  0  5G 1G11G16G20G25
  22306743.9324   -2886732.24649  -2245923.06147                  22306743.5744
        49.7504         37.2504
  22537484.3794    2297590.56549   1781071.97447                  22537484.5774
        49.7504         34.5004
  23013226.0764   -4816979.59149  -3745353.88547                  23013226.5924
        46.0004         31.7504
  21425882.5444   -4149985.19749  -3225587.55148                  21425881.6764
        51.7504         41.7504
  21482132.5584    2484948.51549   1927290.11348                  21482131.7784
        52.5004         42.5004
 04  6 28 22 22  0.0000000  0  5G 1G11G16G20G25
  22303318.3424   -2904734.08049  -2259950.45347                  22303318.3184
        50.0004         37.0004
  22540859.6284    2315326.62849   1794892.26847                  22540859.5414
        49.0004         34.5004
  23007476.0284   -4847194.38749  -3768897.85347                  23007476.7644
        46.2504         31.0004
  21421145.8224   -4174875.93549  -3244982.93248                  21421145.2504
        52.0004         41.2504
  21485660.6474    2503487.98749   1941736.45148                  21485659.5154
        52.5004         42.7504
 04  6 28 22 22 10.0000000  0  5G 1G11G16G20G25
  22299893.5924   -2922729.56649  -2273972.89347                  22299894.0264
        49.5004         37.0004
  22544239.9944    2333093.26849   1808736.38147                  22544240.3704
        49.5004         35.0004
  23001729.9354   -4877392.60649  -3792428.91447                  23001730.3994
        46.0004         31.2504
  21416414.6954   -4199738.74349  -3264356.53248                  21416413.7364
        51.5004         41.0004
  21489193.5434    2522053.33649   1956202.95348                  21489192.3254
        52.7504         42.7504
 04  6 28 22 22 20.0000000  0  5G 1G11G16G20G25
  22296470.6314   -2940716.72449  -2287988.84147                  22296471.0334
        49.5004         36.7504
  22547627.2184    2350892.27949   1822605.73347                  22547627.0854
        49.5004         34.5004
  22995986.7544   -4907572.27249  -3815945.50147                  22995987.3814
        46.5004         31.7504
  21411689.2074   -4224571.54849  -3283706.76448                  21411688.5014
        51.0004         40.7504
  21492731.6024    2540646.41449   1970691.05848                  21492730.5684
        52.5004         42.7504
 04  6 28 22 22 30.0000000  0  5G 1G11G16G20G25
  22293049.6254   -2958694.56349  -2301997.54047                  22293050.0364
        49.7504         36.7504
  22551020.6054    2368724.67249   1836501.08847                  22551020.4264
        49.2504         35.5004
  22990247.7934   -4937732.23349  -3839446.75547                  22990248.0034
        45.7504         31.0004
  21406969.5964   -4249373.23249  -3303032.75148                  21406968.5034
        52.0004         40.5004
  21496275.1474    2559268.14949   1985201.48948                  21496274.2044
        52.7504         42.5004
 04  6 28 22 22 40.0000000  0  5G 1G11G16G20G25
  22289629.9594   -2976664.29749  -2315999.92147                  22289630.3534
        49.7504         36.5004
  22554420.3424    2386589.00949   1850421.34047                  22554420.8984
        49.0004         35.5004
  22984512.3824   -4967873.58249  -3862933.49347                  22984512.2524
        46.5004         30.7504
  21402256.1634   -4274144.96749  -3322335.39348                  21402254.9734
        52.0004         40.7504
  21499824.1134    2577917.35849   1999733.33748                  21499823.1224
        52.5004         42.7504
 04  6 28 22 22 50.0000000  0  5G 1G11G16G20G25
  22286211.9114   -2994626.18949  -2329996.19247                  22286211.6434
        50.0004         37.0004
  22557825.5144    2404484.98749   1864366.22947                  22557825.3834
        49.2504         34.7504
  22978780.0194   -4997996.37049  -3886405.78747                  22978779.5544
        46.5004         31.5004
  21397547.7464   -4298886.90049  -3341614.81448                  21397547.0304
        51.0004         41.2504
  21503377.9394    2596593.57749   2014286.23248                  21503377.0544
        52.5004         43.0004
 04  6 28 22 23  0.0000000  0  5G 1G11G16G20G25
  22282795.4934   -3012579.85349  -2343986.05247                  22282795.7754
        49.5004         37.2504
  22561237.4914    2422412.97649   1878336.08947                  22561237.5924
        48.2504         34.0004
  22973050.7274   -5028100.07949  -3909863.18147                  22973051.1944
        46.5004         32.0004
  21392845.1314   -4323598.52649  -3360870.61248                  21392844.2464
        51.0004         41.5004
  21506936.9324    2615297.16649   2028860.44648                  21506935.9934
        52.5004         42.0004
 04  6 28 22 23 10.0000000  0  5G 1G11G16G20G25
  22279380.6684   -3030525.43149  -2357969.62547                  22279380.6374
        49.7504         36.5004
  22564655.0934    2440372.73249   1892330.67747                  22564655.2064
        48.7504         34.2504
  22967325.6674   -5058184.74749  -3933305.76147                  22967326.5424
        45.7504         32.5004
  21388148.1954   -4348279.90149  -3380102.85248                  21388147.4444
        51.0004         41.5004
  21510501.4904    2634027.78249   2043455.72548                  21510500.4964
        52.2504         42.5004
 04  6 28 22 23 20.0000000  0  5G 1G11G16G20G25
  22275966.7294   -3048464.32849  -2371947.97147                  22275967.6614
        49.5004         36.5004
  22568078.3524    2458362.73549   1906348.85947                  22568078.2874
        49.5004         33.5004
  22961604.5694   -5088251.67149  -3956734.49847                  22961605.0894
        46.7504         31.7504
  21383457.3784   -4372932.35049  -3399312.54848                  21383456.1814
        51.5004         40.5004
  21514070.5594    2652784.15549   2058071.07548                  21514069.6214
        52.2504         41.7504
 04  6 28 22 23 30.0000000  0  5G 1G11G16G20G25
  22272555.4794   -3066391.84949  -2385917.44947                  22272556.0734
        50.0004         36.5004
  22571508.5904    2476387.56949   1920394.16747                  22571508.1444
        49.2504         34.5004
  22955887.3444   -5118296.09249  -3980145.69747                  22955887.5954
        46.7504         32.2504
  21378772.2494   -4397551.05949  -3418495.94748                  21378771.4244
        51.5004         41.0004
  21517645.9534    2671570.87449   2072710.06148                  21517644.9774
        51.2504         42.5004
 04  6 28 22 23 40.0000000  0  5G 1G11G16G20G25
  22269145.7094   -3084311.54849  -2399880.84247                  22269145.9434
        50.5004         36.5004
  22574944.5234    2494443.55949   1934463.76647                  22574944.4934
        48.2504         34.7504
  22950174.0774   -5148321.37049  -4003542.00847                  22950173.9654
        46.5004         31.7504
  21374093.4334   -4422139.52149  -3437655.77948                  21374092.5444
        52.0004         40.7504
  21521225.5134    2690384.28149   2087369.86148                  21521224.6394
        52.0004         42.5004
 04  6 28 22 23 50.0000000  0  5G 1G11G16G20G25
  22265736.6514   -3102225.19149  -2413839.51247                  22265737.0354
        50.7504         37.0004
  22578385.9214    2512528.93049   1948556.24747                  22578386.2464
        46.5004         34.7504
  22944463.3284   -5178329.17349  -4026924.67847                  22944463.0184
        46.5004         33.0004
  21369419.7924   -4446699.36149  -3456793.30948                  21369419.0614
        51.7504         41.5004
  21524810.7524    2709222.53749   2102049.00948                  21524809.7044
        51.0004         42.5004
 04  6 28 22 24  0.0000000  0  5G 1G11G16G20G25
  22262329.3524   -3120130.93949  -2427792.02747                  22262329.7204
        50.0004         37.0004
  22581832.8514    2530645.47449   1962673.01647                  22581833.9564
        44.2504         35.0004
  22938756.3724   -5208317.55049  -4050292.23647                  22938756.4374
        46.7504         32.2504
  21364752.1074   -4471228.61349  -3475907.00848                  21364750.8634
        52.0004         41.5004
  21528400.4884    2728087.42149   2116748.91748                  21528399.3954
        50.0004         42.0004
 04  6 28 22 24 10.0000000  0  5G 1G11G16G20G25
  22258923.8934   -3138026.75749  -2441736.81247                  22258924.6254
        49.2504         36.7504
  22585287.1064    2548795.16849   1976815.62147                  22585287.8334
        43.5004         34.5004
  22933054.3694   -5238284.32749  -4073642.94647                  22933053.9794
        46.2504         32.7504
  21360090.3444   -4495725.17249  -3494995.23148                  21360089.5724
        52.2504         41.5004
  21531996.1444    2746980.89749   2131471.09248                  21531994.6934
        49.2504         42.0004
 04  6 28 22 24 20.0000000  0  5G 1G11G16G20G25
  22255520.4004   -3155912.68049  -2455673.87147                  22255520.3954
        49.7504         37.0004
  22588747.1144    2566977.76449   1990983.85647                  22588747.6424
        43.7504         34.5004
  22927355.9604   -5268229.39249  -4096976.74347                  22927356.0694
        46.2504         32.5004
  21355435.3744   -4520188.95449  -3514057.91348                  21355434.1534
        51.7504         41.7504
  21535596.4794    2765902.84049   2146215.45448                  21535595.6294
        50.5004         42.2504
 04  6 28 22 24 30.0000000  0  5G 1G11G16G20G25
  22252118.2224   -3173791.88149  -2469605.69947                  22252118.6684
        50.0004         36.7504
  22592212.8124    2585190.02249   2005175.20047                  22592213.2994
        47.2504         34.0004
  22921660.6214   -5298155.74049  -4120295.93447                  22921661.0364
        46.2504         32.5004
  21350785.4134   -4544623.03249  -3533097.43748                  21350784.6474
        51.7504         41.5004
  21539201.9774    2784850.05649   2160979.52948                  21539201.1824
        51.2504         41.0004
 04  6 28 22 24 40.0000000  0  5G 1G11G16G20G25
  22248716.4334   -3191664.54249  -2483532.44447                  22248717.3574
        49.7504         37.0004
  22595683.8714    2603431.66149   2019389.45047                  22595684.5324
        48.0004         34.2504
  22915969.8074   -5328063.47949  -4143600.64147                  22915970.3904
        46.0004         32.0004
  21346141.6514   -4569027.50949  -3552113.91748                  21346140.1664
        52.0004         41.7504
  21542812.2584    2803822.25449   2175763.04148                  21542811.2964
        52.0004         41.5004
 04  6 28 22 24 50.0000000  0  5G 1G11G16G20G25
  22245316.9764   -3209529.15449  -2497452.90147                  22245317.5674
        49.7504         37.0004
  22599161.2104    2621704.15349   2033627.73747                  22599161.6154
        48.7504         34.0004
  22910282.0854   -5357950.98249  -4166889.54747                  22910282.8974
        46.7504         32.2504
  21341503.4744   -4593400.81449  -3571106.09248                  21341502.3474
        51.2504         41.0004
  21546427.7804    2822820.83649   2190567.11948                  21546426.7234
        52.5004         41.2504
 04  6 28 22 25  0.0000000  0  5G 1G11G16G20G25
  22241919.1864   -3227386.37349  -2511367.59547                  22241919.8404
        49.7504         37.0004
  22602643.9154    2640006.74949   2047889.50647                  22602643.9144
        48.5004         34.0004
  22904598.7854   -5387818.78649  -4190163.15947                  22904598.6014
        46.5004         32.0004
  21336871.1164   -4617743.44249  -3590074.36648                  21336869.9244
        51.2504         41.5004
  21550048.1174    2841845.09949   2205391.22248                  21550047.0244
        52.0004         41.7504
 04  6 28 22 25 10.0000000  0  5G 1G11G16G20G25
  22238522.6154   -3245235.52949  -2525276.02247                  22238522.9964
        49.5004         37.5004
  22606132.6854    2658340.03049   2062175.15947                  22606132.8884
        46.5004         34.5004
  22898918.7604   -5417666.04249  -4213420.74447                  22898918.7624
        46.0004         32.0004
  21332244.7624   -4642054.62949  -3609018.13748                  21332243.7534
        51.7504         41.2504
  21553672.9944    2860895.69549   2220235.83148                  21553672.2474
        50.7504         41.7504
 04  6 28 22 25 20.0000000  0  5G 1G11G16G20G25
  22235127.3724   -3263077.40449  -2539178.78647                  22235127.4034
        50.2504         37.5004
  22609627.2094    2676703.15549   2076484.06447                  22609627.4354
        43.7504         34.2504
  22893243.1314   -5447493.47449  -4236662.86747                  22893242.9534
        47.0004         32.0004
  21327624.4544   -4666335.12549  -3627938.00348                  21327622.9244
        51.7504         41.0004
  21557303.2034    2879971.78149   2235100.31248                  21557302.0624
        49.5004         41.7504
 04  6 28 22 25 30.0000000  0  5G 1G11G16G20G25
  22231733.9654   -3280910.92049  -2553075.01747                  22231734.4054
        49.5004         37.7504
  22613127.1324    2695097.06049   2090816.95547                  22613127.1704
        46.0004         34.7504
  22887571.2274   -5477299.86649  -4259888.60647                  22887570.5544
        46.7504         32.5004
  21323009.9744   -4690583.68349  -3646832.98248                  21323008.6114
        52.0004         41.2504
  21560938.2174    2899074.27449   2249985.37048                  21560937.1324
        50.7504         41.5004
 04  6 28 22 25 40.0000000  0  5G 1G11G16G20G25
  22228341.5564   -3298737.94149  -2566966.20047                  22228341.6694
        50.0004         37.5004
  22616632.9514    2713519.89649   2105172.40047                  22616633.6384
        48.7504         34.7504
  22881902.8104   -5507087.02649  -4283099.35447                  22881902.6014
        47.0004         31.7504
  21318401.2664   -4714802.08549  -3665704.45148                  21318400.3184
        51.5004         41.0004
  21564577.5664    2918201.23849   2264889.49248                  21564577.0084
        51.5004         41.2504
 04  6 28 22 25 50.0000000  0  5G 1G11G16G20G25
  22224950.3124   -3316557.18149  -2580851.30347                  22224951.0614
        50.2504         37.5004
  22620144.5914    2731972.77249   2119551.23647                  22620145.2934
        48.7504         35.0004
  22876238.1474   -5536853.45749  -4306293.97047                  22876238.0724
        47.2504         32.5004
  21313798.9014   -4738988.96749  -3684551.36248                  21313798.0984
        51.7504         41.7504
  21568222.6474    2937353.99749   2279813.70748                  21568221.7994
        52.0004         41.5004
 04  6 28 22 26  0.0000000  0  5G 1G11G16G20G25
  22221561.2134   -3334367.55749  -2594729.50547                  22221561.7534
        50.5004         37.5004
  22623662.6214    2750456.62849   2133954.22447                  22623662.1274
        49.2504         34.2504
  22870578.4454   -5566597.97949  -4329471.48847                  22870577.8224
        47.0004         32.7504
  21309202.5504   -4763143.15049  -3703372.79648                  21309201.7014
        52.0004         41.2504
  21571872.4074    2956533.49949   2294758.76248                  21571871.7914
        52.2504         41.5004
 04  6 28 22 26 10.0000000  0  5G 1G11G16G20G25
  22218173.8674   -3352170.22249  -2608601.70147                  22218173.8734
        49.5004         36.7504
  22627185.1214    2768970.30849   2148380.45947                  22627184.9364
        48.7504         34.5004
  22864921.6704   -5596321.59549  -4352632.72047                  22864921.8414
        46.5004         33.2504
  21304611.7894   -4787265.75849  -3722169.62548                  21304610.9934
        51.7504         41.2504
  21575526.6854    2975738.48849   2309723.68748                  21575526.0574
        51.2504         41.7504
 04  6 28 22 26 20.0000000  0  5G 1G11G16G20G25
  22214787.0574   -3369964.17849  -2622467.11247                  22214787.5844
        49.2504         36.7504
  22630714.3954    2787514.63449   2162830.56347                  22630714.4074
        48.7504         34.7504
  22859269.6774   -5626023.19449  -4375776.78947                  22859270.5314
        47.0004         32.7504
  21300028.1324   -4811355.64049  -3740940.95648                  21300026.7494
        51.2504         41.5004
  21579186.3304    2994969.90449   2324709.21048                  21579185.8834
        51.7504         41.5004
 04  6 28 22 26 30.0000000  0  5G 1G11G16G20G25
  22211402.8314   -3387750.70049  -2636326.72647                  22211403.3194
        49.5004         37.0004
  22634248.6374    2806088.33149   2177303.55047                  22634248.6784
        48.5004         34.0004
  22853621.4384   -5655703.88949  -4398904.59447                  22853622.0384
        46.5004         32.5004
  21295449.8364   -4835413.81349  -3759687.58148                  21295448.6114
        51.5004         41.5004
  21582850.9714    3014226.42849   2339714.27248                  21582850.1154
        52.0004         41.7504
 04  6 28 22 26 40.0000000  0  5G 1G11G16G20G25
  22208020.0774   -3405528.91349  -2650179.86647                  22208020.1124
        50.0004         37.0004
  22637788.6644    2824692.22149   2191800.07047                  22637789.1184
        49.0004         34.5004
  22847978.0664   -5685362.71249  -4422015.32747                  22847978.0784
        46.7504         32.7504
  21290878.0954   -4859439.45549  -3778408.84848                  21290877.0634
        52.2504         41.0004
  21586520.0304    3033508.86049   2354739.53948                  21586519.5824
        52.2504         41.5004
 04  6 28 22 26 50.0000000  0  5G 1G11G16G20G25
  22204637.8974   -3423299.93049  -2664027.40347                  22204638.5004
        50.0004         37.5004
  22641333.9154    2843325.07449   2206319.15147                  22641334.5684
        49.0004         34.0004
  22842337.9324   -5715000.65049  -4445109.79947                  22842337.5374
        46.5004         32.5004
  21286312.0054   -4883433.59149  -3797105.57548                  21286310.9094
        51.5004         41.0004
  21590194.2404    3052816.08549   2369784.13048                  21590193.7014
        51.2504         41.5004
 04  6 28 22 27  0.0000000  0  5G 1G11G16G20G25
  22201257.7614   -3441063.21149  -2677868.92747                  22201258.0084
        50.0004         37.5004
  22644885.7684    2861987.28249   2220861.12647                  22644886.1104
        49.5004         34.0004
  22836702.2764   -5744616.98649  -4468187.43647                  22836702.0074
        47.5004         33.5004
  21281752.4274   -4907395.50849  -3815777.18948                  21281750.8314
        52.0004         41.2504
  21593872.8234    3072148.53749   2384848.36348                  21593872.1924
        52.0004         41.7504
 04  6 28 22 27 10.0000000  0  5G 1G11G16G20G25
  22197878.9024   -3458819.01449  -2691704.59747                  22197879.7034
        50.2504         37.0004
  22648442.3264    2880678.53449   2235425.71047                  22648442.8554
        48.7504         34.0004
  22831070.4684   -5774211.94549  -4491248.42847                  22831070.2634
        47.2504         33.0004
  21277198.3124   -4931325.39849  -3834423.84748                  21277197.0194
        51.5004         41.0004
  21597556.9034    3091505.86249   2399931.99248                  21597556.0084
        52.0004         41.7504
 04  6 28 22 27 20.0000000  0  5G 1G11G16G20G25
  22194501.7624   -3476566.23149  -2705533.58747                  22194502.1574
        50.0004         37.5004
  22652004.7994    2899399.87149   2250013.75047                  22652004.7414
        47.5004         33.7504
  22825442.9044   -5803784.27549  -4514291.77447                  22825442.5594
        47.5004         33.5004
  21272650.8564   -4955222.12249  -3853044.66948                  21272649.7144
        51.5004         42.0004
  21601245.1684    3110889.10449   2415035.80448                  21601244.4504
        51.5004         41.7504
 04  6 28 22 27 30.0000000  0  5G 1G11G16G20G25
  22191126.1234   -3494305.15949  -2719356.11247                  22191126.5064
        50.2504         37.7504
  22655573.4754    2918150.90449   2264624.92347                  22655573.6844
        45.2504         34.0004
  22819820.5214   -5833334.04749  -4537317.55047                  22819819.6164
        47.5004         33.2504
  21268109.7074   -4979085.75349  -3871639.68948                  21268108.6444
        51.5004         41.7504
  21604938.5044    3130297.87349   2430159.52148                  21604938.1694
        49.5004         41.5004
 04  6 28 22 27 40.0000000  0  5G 1G11G16G20G25
  22187751.6694   -3512036.92949  -2733173.06747                  22187751.5454
        50.2504         37.5004
  22659147.1144    2936930.26749   2279258.16947                  22659147.5954
        44.0004         34.5004
  22814200.7784   -5862862.40749  -4560326.63247                  22814200.1764
        46.5004         32.2504
  21263574.9644   -5002917.50649  -3890209.88348                  21263574.3104
        52.5004         41.7504
  21608636.5574    3149730.80049   2445302.05948                  21608635.7004
        49.5004         41.0004
 04  6 28 22 27 50.0000000  0  5G 1G11G16G20G25
  22184378.5794   -3529760.87449  -2746983.92647                  22184379.1774
        49.7504         37.5004
  22662726.1004    2955738.65049   2293914.03547                  22662726.8014
        47.2504         35.0004
  22808585.4294   -5892368.50549  -4583318.37947                  22808585.0104
        46.7504         32.0004
  21259045.9264   -5026716.51449  -3908754.55748                  21259045.1434
        51.7504         41.7504
  21612339.0784    3169188.65949   2460464.01548                  21612338.8784
        50.5004         42.0004
 04  6 28 22 28  0.0000000  0  5G 1G11G16G20G25
  22181007.3424   -3547478.55949  -2760789.89947                  22181007.9524
        49.5004         37.2504
  22666310.0244    2974574.46349   2308591.27447                  22666311.1954
        48.5004         34.2504
  22802975.4614   -5921853.81749  -4606293.92147                  22802974.8724
        47.7504         33.0004
  21254523.0294   -5050484.16549  -3927274.79448                  21254522.2384
        52.2504         41.0004
  21616046.1924    3188669.79649   2475644.11748                  21616045.7034
        52.0004         41.5004
 04  6 28 22 28 10.0000000  0  5G 1G11G16G20G25
  22177637.4704   -3565188.43949  -2774589.79147                  22177637.3184
        49.2504         37.5004
  22669900.0544    2993439.12449   2323290.99647                  22669900.8934
        46.7504         33.5004
  22797368.1104   -5951316.71349  -4629251.99247                  22797368.3074
        47.2504         34.0004
  21250006.3264   -5074218.94449  -3945769.42248                  21250005.5074
        51.7504         41.5004
  21619758.3494    3208175.67749   2490843.50048                  21619757.5424
        51.0004         42.0004
 04  6 28 22 28 20.0000000  0  5G 1G11G16G20G25
  22174268.4254   -3582891.42849  -2788384.31647                  22174269.3284
        49.5004         36.7504
  22673494.9664    3012331.57749   2338012.37147                  22673495.8994
        43.0004         34.7504
  22791766.0114   -5980757.95249  -4652193.19147                  22791765.7354
        47.7504         34.0004
  21245496.1364   -5097921.61949  -3964239.02148                  21245495.2914
        51.7504         42.0004
  21623474.6084    3227705.42749   2506061.47348                  21623474.0194
        48.7504         41.5004
 04  6 28 22 28 30.0000000  0  5G 1G11G16G20G25
  22170901.3284   -3600585.68349  -2802172.03447                  22170902.0174
        49.7504         36.7504
  22677096.2574    3031253.60449   2352756.78647                  22677096.8444
        43.5004         34.5004
  22786167.7754   -6010175.54149  -4675115.96547                  22786168.1364
        47.0004         33.5004
  21240991.7854   -5121590.19749  -3982682.07048                  21240991.1804
        51.7504         41.7504
  21627195.7214    3247260.70349   2521299.35148                  21627195.1704
        48.5004         41.2504
 04  6 28 22 28 40.0000000  0  5G 1G11G16G20G25
  22167535.7544   -3618271.07249  -2815952.86147                  22167536.4964
        50.0004         37.7504
  22680702.3664    3050205.23949   2367524.27447                  22680702.9814
        47.5004         34.7504
  22780574.4954   -6039569.29749  -4698020.16447                  22780574.0644
        47.2504         34.0004
  21236494.3294   -5145224.58849  -4001098.47648                  21236493.6794
        51.5004         42.0004
  21630922.0674    3266841.55549   2536557.14648                  21630921.2274
        51.0004         41.5004
 04  6 28 22 28 50.0000000  0  5G 1G11G16G20G25
  22164172.1514   -3635948.27549  -2829727.28847                  22164172.1244
        50.0004         37.5004
  22684314.4664    3069185.67349   2382314.22147                  22684314.6294
        49.0004         34.5004
  22774985.0854   -6068939.65349  -4720906.12747                  22774985.2714
        47.5004         33.5004
  21232003.4454   -5168825.25149  -4019488.59448                  21232002.9234
        51.5004         42.2504
  21634652.8654    3286447.31349   2551834.35648                  21634652.2244
        51.2504         41.2504
 04  6 28 22 29  0.0000000  0  5G 1G11G16G20G25
  22160809.7884   -3653617.45049  -2843495.46347                  22160810.3574
        49.2504         37.2504
  22687931.6574    3088194.75949   2397126.47447                  22687931.9104
        49.2504         34.5004
  22769401.1164   -6098286.68549  -4743773.91847                  22769400.7094
        47.5004         33.7504
  21227518.8304   -5192392.28949  -4037852.50248                  21227517.9184
        51.7504         42.2504
  21638388.3614    3306077.72949   2567130.77748                  21638387.8754
        51.5004         41.0004
 04  6 28 22 29 10.0000000  0  5G 1G11G16G20G25
  22157449.3334   -3671277.43649  -2857256.49147                  22157449.8974
        50.0004         37.2504
  22691554.6764    3107233.49249   2411961.84847                  22691554.9684
        48.0004         34.0004
  22763821.0494   -6127609.07249  -4766622.52447                  22763820.7064
        47.0004         32.7504
  21223040.6814   -5215924.47149  -4056189.25748                  21223039.7034
        51.7504         42.0004
  21642128.7074    3325733.87449   2582447.25048                  21642127.7294
        51.2504         40.7504
 04  6 28 22 29 20.0000000  0  5G 1G11G16G20G25
  22154090.1944   -3688927.89049  -2871010.06647                  22154090.7944
        49.7504         36.5004
  22695183.3334    3126302.15649   2426820.50047                  22695183.5894
        48.0004         33.7504
  22758246.3294   -6156906.37649  -4789451.58047                  22758245.5674
        47.5004         32.5004
  21218569.6094   -5239421.31349  -4074498.47548                  21218568.7064
        52.0004         41.2504
  21645873.9144    3345415.98049   2597783.94148                  21645873.0604
        51.2504         40.5004
 04  6 28 22 29 30.0000000  0  5G 1G11G16G20G25
  22150732.9834   -3706572.44549  -2884759.06547                  22150733.2724
        49.2504         37.5004
  22698817.1174    3145396.95549   2441699.55347                  22698817.2084
        48.2504         34.2504
  22752675.0144   -6186182.19349  -4812263.86447                  22752674.3314
        46.5004         33.2504
  21214104.3124   -5262886.43349  -4092782.98948                  21214103.2764
        51.5004         42.2504
  21649623.3754    3365120.31349   2613137.96748                  21649623.0164
        51.5004         40.7504
 04  6 28 22 29 40.0000000  0  5G 1G11G16G20G25
  22147376.6184   -3724207.93449  -2898500.97947                  22147377.5734
        49.5004         37.0004
  22702456.4344    3164520.95349   2456601.35947                  22702456.1774
        48.7504         34.5004
  22747108.4804   -6215433.22549  -4835056.86047                  22747108.1894
        47.0004         32.5004
  21209645.6754   -5286316.49749  -4111040.16948                  21209644.8074
        52.2504         42.2504
  21653377.8614    3384849.98549   2628511.72848                  21653377.2174
        50.5004         40.2504
 04  6 28 22 29 50.0000000  0  5G 1G11G16G20G25
  22144022.3704   -3741835.48249  -2912236.73447                  22144022.8984
        50.0004         37.5004
  22706100.3814    3183673.01249   2471525.01447                  22706100.8404
        48.0004         33.7504
  22741546.5544   -6244660.43949  -4857831.29147                  22741546.5624
        47.2504         33.5004
  21205193.7354   -5309712.55949  -4129270.86148                  21205192.2804
        51.7504         42.2504
  21657137.3124    3404603.80849   2643904.30648                  21657136.7104
        51.0004         40.5004
 04  6 28 22 30  0.0000000  0  5G 1G11G16G20G25
  22140669.6804   -3759454.16049  -2925965.54747                  22140669.7444
        49.5004         37.0004
  22709750.4864    3202853.99349   2486471.21747                  22709751.0784
        48.0004         34.0004
  22735989.7404   -6273862.75549  -4880586.31047                  22735989.6634
        47.0004         34.0004
  21200748.1384   -5333073.52349  -4147474.19648                  21200747.4554
        51.7504         42.5004
  21660900.6384    3424382.70049   2659316.43648                  21660899.7364
        51.7504         40.5004
 04  6 28 22 30 10.0000000  0  5G 1G11G16G20G25
  22137318.3634   -3777065.24249  -2939688.46547                  22137318.3914
        50.0004         37.2504
  22713406.2924    3222062.55149   2501438.89547                  22713406.2794
        47.7504         33.5004
  22730437.7494   -6303041.29249  -4903322.81847                  22730437.2964
        47.0004         33.0004
  21196309.5764   -5356400.62449  -4165651.16048                  21196307.9794
        51.5004         42.0004
  21664669.1354    3444185.30249   2674747.01648                  21664668.7354
        51.0004         40.5004
 04  6 28 22 30 20.0000000  0  5G 1G11G16G20G25
  22133968.8184   -3794667.55449  -2953404.54247                  22133968.7844
        49.7504         38.0004
  22717066.4414    3241299.68749   2516428.87947                  22717066.6954
        48.2504         33.0004
  22724889.7774   -6332194.82449  -4926039.83247                  22724889.2484
        46.7504         33.0004
  21191876.9564   -5379692.56549  -4183800.70548                  21191875.7084
        52.5004         42.2504
  21668442.5054    3464012.66449   2690196.90548                  21668441.1034
        51.0004         40.5004
 04  6 28 22 30 30.0000000  0  5G 1G11G16G20G25
  22130620.7204   -3812262.88449  -2967115.17547                  22130620.6884
        50.0004         37.5004
  22720732.1984    3260563.51149   2531439.62247                  22720732.8204
        48.0004         33.2504
  22719345.9194   -6361325.02649  -4948738.67447                  22719345.6894
        46.7504         32.7504
  21187450.6924   -5402951.06849  -4201924.20648                  21187449.9124
        52.0004         41.7504
  21672219.4494    3483862.98349   2705664.68848                  21672218.7524
        51.0004         40.5004
 04  6 28 22 30 40.0000000  0  5G 1G11G16G20G25
  22127273.5894   -3829849.82949  -2980819.26647                  22127274.2954
        49.5004         37.5004
  22724403.8294    3279855.29849   2546472.17147                  22724403.8794
        49.0004         34.5004
  22713807.2014   -6390430.30249  -4971418.08247                  22713806.8974
        47.5004         33.2504
  21183031.2804   -5426174.69549  -4220020.53448                  21183030.7954
        51.5004         41.7504
  21676001.5774    3503737.58549   2721151.38548                  21676000.5384
        50.5004         40.7504
 04  6 28 22 30 50.0000000  0  5G 1G11G16G20G25
  22123928.5544   -3847429.97549  -2994518.06847                  22123928.6004
        50.0004         37.2504
  22728080.1554    3299173.48549   2561525.28947                  22728080.7224
        48.5004         33.5004
  22708273.2224   -6419512.16349  -4994079.24747                  22708273.4634
        46.7504         33.7504
  21178618.6164   -5449364.85949  -4238090.77848                  21178617.5924
        51.7504         42.2504
  21679788.1794    3523634.82549   2736655.72348                  21679787.1454
        51.7504         40.5004
 04  6 28 22 31  0.0000000  0  5G 1G11G16G20G25
  22120583.5164   -3865004.28449  -3008212.31947                  22120584.3544
        50.0004         37.2504
  22731760.6024    3318516.93749   2576598.07747                  22731761.2124
        48.0004         34.5004
  22702743.2864   -6448571.46049  -5016722.84647                  22702743.5574
        47.0004         34.0004
  21174211.6704   -5472522.40549  -4256135.60648                  21174210.5844
        51.7504         42.2504
  21683578.7914    3543553.65649   2752176.87648                  21683577.6184
        51.2504         40.2504
 04  6 28 22 31 10.0000000  0  5G 1G11G16G20G25
  22117241.5954   -3882569.96249  -3021899.85547                  22117241.8154
        50.0004         37.5004
  22735447.0534    3337888.43749   2591692.74247                  22735447.3324
        48.2504         34.0004
  22697218.8434   -6477605.22049  -5039346.52247                  22697218.2134
        47.0004         34.0004
  21169811.9024   -5495644.46649  -4274152.79548                  21169810.9804
        52.2504         42.5004
  21687373.5634    3563496.83949   2767717.01848                  21687372.6364
        50.2504         40.5004
 04  6 28 22 31 20.0000000  0  5G 1G11G16G20G25
  22113900.0854   -3900129.10449  -3035582.29647                  22113900.3014
        50.0004         37.5004
  22739138.0414    3357285.75849   2606807.50047                  22739138.6354
        47.7504         33.2504
  22691698.2304   -6506615.45149  -5061951.88547                  22691697.7254
        47.0004         33.0004
  21165418.3494   -5518733.05349  -4292143.88748                  21165417.2924
        52.0004         41.7504
  21691172.7014    3583462.20849   2783274.43848                  21691171.6954
        51.0004         40.0004
 04  6 28 22 31 30.0000000  0  5G 1G11G16G20G25
  22110560.6604   -3917680.50749  -3049258.69647                  22110560.7524
        49.7504         38.0004
  22742834.0184    3376709.93049   2621943.19447                  22742834.7684
        48.0004         33.5004
  22686182.1734   -6535600.86849  -5084537.88747                  22686182.3154
        47.5004         33.2504
  21161031.1164   -5541786.85849  -4310107.88148                  21161030.1604
        52.5004         42.2504
  21694976.8194    3603450.75949   2798849.93348                  21694976.0704
        52.0004         40.0004
 04  6 28 22 31 40.0000000  0  5G 1G11G16G20G25
  22107221.4614   -3935224.43549  -3062929.27947                  22107222.0834
        49.7504         37.5004
  22746536.2724    3396160.69049   2637099.62147                  22746536.3954
        48.2504         33.2504
  22680671.2914   -6564561.55549  -5107104.64247                  22680671.0954
        47.5004         33.0004
  21156650.8194   -5564806.08349  -4328044.93748                  21156649.8074
        52.5004         42.0004
  21698784.6974    3623462.27449   2814443.31048                  21698783.6754
        51.5004         40.5004
 04  6 28 22 31 50.0000000  0  5G 1G11G16G20G25
  22103884.9354   -3952759.08749  -3076592.63447                  22103885.1214
        49.5004         38.0004
  22750242.3044    3415639.74949   2652278.10247                  22750242.8624
        48.5004         33.2504
  22675165.6364   -6593495.62249  -5129650.66247                  22675164.7294
        47.0004         33.5004
  21152277.5764   -5587788.83349  -4345953.57048                  21152276.1804
        51.7504         42.5004
  21702597.6664    3643498.43649   2830055.89548                  21702596.6444
        51.5004         41.0004
 04  6 28 22 32  0.0000000  0  5G 1G11G16G20G25
  22100550.2004   -3970284.13249  -3090248.50447                  22100550.3784
        49.7504         37.5004
  22753954.6464    3435147.36349   2667478.82147                  22753955.2844
        48.5004         33.0004
  22669664.8374   -6622402.54349  -5152175.48647                  22669664.1484
        47.7504         33.2504
  21147910.8994   -5610734.60349  -4363833.38648                  21147909.8104
        52.0004         42.2504
  21706415.3404    3663559.49149   2845687.88548                  21706413.7564
        51.2504         40.7504
 04  6 28 22 32 10.0000000  0  5G 1G11G16G20G25
  22097216.4414   -3987801.39349  -3103898.31247                  22097216.7194
        49.7504         38.5004
  22757671.9054    3454681.58649   2682700.25447                  22757672.5484
        47.5004         32.7504
  22664168.8994   -6651284.09049  -5174680.58447                  22664168.0494
        47.7504         33.0004
  21143551.3194   -5633645.16349  -4381685.76048                  21143549.7654
        51.5004         42.7504
  21710236.9034    3683643.57349   2861337.81948                  21710235.5304
        52.0004         40.7504
 04  6 28 22 32 20.0000000  0  5G 1G11G16G20G25
  22093884.5124   -4005310.05049  -3117541.40647                  22093884.6244
        50.2504         37.5004
  22761394.3824    3474243.08149   2697942.97247                  22761394.9794
        47.5004         32.5004
  22658677.8434   -6680139.34049  -5197165.18447                  22658676.7704
        47.5004         33.0004
  21139198.2694   -5656519.57549  -4399509.96848                  21139197.2314
        52.0004         43.0004
  21714063.2674    3703751.31849   2877006.19248                  21714062.1674
        51.7504         41.0004
 04  6 28 22 32 30.0000000  0  5G 1G11G16G20G25
  22090554.2074   -4022811.78649  -3131179.10847                  22090554.5114
        49.5004         38.0004
  22765121.7684    3493830.10549   2713205.56547                  22765122.4574
        47.5004         32.2504
  22653191.3684   -6708969.83549  -5219630.49547                  22653191.1204
        48.0004         33.2504
  21134852.0114   -5679359.47249  -4417307.28848                  21134850.8624
        52.0004         42.2504
  21717893.7234    3723881.03949   2892691.68248                  21717892.9894
        51.2504         40.2504
 04  6 28 22 32 40.0000000  0  5G 1G11G16G20G25
  22087225.3884   -4040305.88649  -3144810.86947                  22087225.7514
        50.2504         37.7504
  22768854.2824    3513443.33449   2728488.58547                  22768854.3334
        47.5004         32.0004
  22647709.9594   -6737774.74149  -5242075.85747                  22647709.6994
        47.0004         33.5004
  21130512.8244   -5702164.05849  -4435077.08848                  21130511.1614
        52.5004         42.2504
  21721728.8554    3744033.46449   2908394.85048                  21721727.6024
        51.7504         41.0004
 04  6 28 22 32 50.0000000  0  5G 1G11G16G20G25
  22083897.7744   -4057792.30549  -3158436.63847                  22083898.0464
        50.2504         37.7504
  22772591.6224    3533082.65449   2743791.94447                  22772591.9184
        47.5004         33.2504
  22642233.3024   -6766553.86149  -5264501.12047                  22642233.6154
        47.5004         33.5004
  21126179.7214   -5724933.13749  -4452819.22048                  21126178.5534
        52.2504         42.2504
  21725567.9894    3764208.56449   2924115.70948                  21725567.3114
        51.5004         41.0004
 04  6 28 22 33  0.0000000  0  5G 1G11G16G20G25
  22080570.6774   -4075272.27849  -3172057.37247                  22080571.5114
        50.0004         37.5004
  22776333.1854    3552746.75849   2759114.60747                  22776333.3464
        48.0004         32.0004
  22636761.1684   -6795308.32349  -5286907.16447                  22636761.4634
        48.0004         34.2504
  21121853.2554   -5747667.89549  -4470534.60548                  21121852.3104
        52.0004         42.5004
  21729411.5624    3784404.98649   2939853.18548                  21729411.0024
        51.5004         41.0004
 04  6 28 22 33 10.0000000  0  5G 1G11G16G20G25
  22077246.5264   -4092744.65349  -3185672.21247                  22077246.7514
        50.2504         38.2504
  22780079.9264    3572436.72949   2774457.40347                  22780080.2124
        48.0004         32.5004
  22631294.6954   -6824036.88249  -5309293.02647                  22631294.7224
        47.2504         33.7504
  21117533.8644   -5770367.07749  -4488222.27248                  21117532.8934
        52.5004         42.5004
  21733258.9244    3804623.77349   2955608.07048                  21733258.4574
        51.2504         41.5004
 04  6 28 22 33 20.0000000  0  5G 1G11G16G20G25
  22073922.8104   -4110208.82049  -3199280.64047                  22073923.1194
        50.5004         38.0004
  22783831.6194    3592153.06849   2789820.78547                  22783832.7154
        48.2504         33.0004
  22625832.6864   -6852738.79549  -5331658.13947                  22625832.7824
        47.5004         33.7504
  21113221.3524   -5793029.96449  -4505881.66348                  21113220.2154
        52.0004         42.7504
  21737111.0394    3824865.50049   2971380.84448                  21737110.0344
        52.0004         41.2504
 04  6 28 22 33 30.0000000  0  5G 1G11G16G20G25
  22070600.9684   -4127665.83749  -3212883.49347                  22070601.7864
        50.2504         38.2504
  22787588.5884    3611894.60549   2805203.78947                  22787589.1764
        47.5004         32.5004
  22620375.9744   -6881415.00649  -5354003.22047                  22620375.8894
        47.5004         34.0004
  21108915.4984   -5815657.47949  -4523513.47948                  21108914.4854
        52.2504         42.7504
  21740966.5434    3845129.06949   2987170.63748                  21740966.1704
        52.2504         42.0004
 04  6 28 22 33 40.0000000  0  5G 1G11G16G20G25
  22067280.7454   -4145113.87749  -3226479.36247                  22067281.3794
        50.7504         38.0004
  22791351.0014    3631663.02649   2820607.73347                  22791351.1254
        47.5004         32.7504
  22614924.2264   -6910063.52949  -5376326.71347                  22614924.0324
        48.0004         33.2504
  21104616.3984   -5838247.71149  -4541116.25748                  21104615.3824
        51.7504         43.0004
  21744827.3274    3865416.15849   3002978.75148                  21744826.7324
        51.7504         41.0004
 04  6 28 22 33 50.0000000  0  5G 1G11G16G20G25
  22063961.4924   -4162556.81149  -3240071.23747                  22063962.0914
        50.5004         37.7504
  22795116.6544    3651454.31249   2836029.49747                  22795117.4014
        47.5004         32.0004
  22609477.4734   -6938688.15549  -5398631.59747                  22609476.9404
        48.0004         33.5004
  21100323.8534   -5860804.50049  -4558692.97848                  21100322.8764
        52.0004         42.7504
  21748691.5934    3885722.82449   3018802.11548                  21748690.6174
        51.7504         41.5004
 04  6 28 22 34  0.0000000  0  5G 1G11G16G20G25
  22060644.0194   -4179992.03949  -3253657.13047                  22060644.0514
        50.2504         37.5004
  22798887.5514    3671271.18249   2851471.18847                  22798888.2704
        47.5004         33.0004
  22604034.4304   -6967286.09549  -5420915.70247                  22604034.6734
        47.0004         33.2504
  21096038.4554   -5883325.09049  -4576241.46948                  21096037.4534
        51.5004         42.0004
  21752560.1714    3906051.57549   3034642.69048                  21752559.1114
        52.2504         41.2504
 04  6 28 22 34 10.0000000  0  5G 1G11G16G20G25
  22057327.5124   -4197419.52549  -3267236.97047                  22057327.9904
        49.7504         38.2504
  22802663.5084    3691113.47349   2866932.68947                  22802664.1224
        48.0004         33.2504
  22598598.0224   -6995857.29749  -5443178.95647                  22598597.7014
        46.7504         34.0004
  21091759.7044   -5905809.38949  -4593761.70248                  21091758.9134
        52.0004         42.5004
  21756432.4854    3926402.42949   3050500.49948                  21756431.8814
        51.7504         41.7504
 04  6 28 22 34 20.0000000  0  5G 1G11G16G20G25
  22054012.2384   -4214839.30849  -3280810.81547                  22054012.7274
        50.0004         37.7504
  22806444.5674    3710981.09549   2882413.93647                  22806445.3244
        47.5004         32.7504
  22593166.1454   -7024401.59549  -5465421.26147                  22593166.6254
        47.2504         34.0004
  21087488.1264   -5928257.35449  -4611253.62148                  21087487.1044
        52.2504         43.0004
  21760309.5174    3946775.29349   3066375.44948                  21760308.9594
        51.7504         41.2504
 04  6 28 22 34 30.0000000  0  5G 1G11G16G20G25
  22050699.1494   -4232251.47649  -3294378.73247                  22050699.2274
        50.5004         38.0004
  22810229.6694    3730873.84849   2897914.76047                  22810230.2334
        48.0004         33.0004
  22587739.1304   -7052919.00449  -5487642.57847                  22587739.5024
        47.0004         33.5004
  21083223.3934   -5950668.93949  -4628717.18548                  21083222.2454
        52.5004         43.0004
  21764190.3974    3967170.01649   3082267.43848                  21764189.7134
        51.7504         41.7504
 04  6 28 22 34 40.0000000  0  5G 1G11G16G20G25
  22047386.9104   -4249656.35349  -3307940.96147                  22047387.1174
        50.2504         38.0004
  22814020.0774    3750791.32549   2913434.85847                  22814020.8224
        47.0004         32.5004
  22582317.5364   -7081409.68749  -5509843.08347                  22582317.5884
        47.0004         34.7504
  21078965.4514   -5973044.38449  -4646152.58648                  21078964.4414
        52.2504         42.5004
  21768075.4614    3987586.17149   3098176.11348                  21768074.8524
        51.2504         41.0004
 04  6 28 22 34 50.0000000  0  5G 1G11G16G20G25
  22044077.1014   -4267051.26249  -3321495.41247                  22044077.2164
        49.7504         38.0004
  22817815.0234    3770736.09849   2928976.22547                  22817816.4404
        47.5004         33.5004
  22576902.1894   -7109870.93849  -5532020.66447                  22576902.2384
        47.2504         34.5004
  21074715.1024   -5995380.94249  -4663557.69848                  21074713.8604
        52.0004         43.0004
  21771965.1364    4008026.41649   3114103.57848                  21771964.6294
        51.5004         41.2504
 04  6 28 22 35  0.0000000  0  5G 1G11G16G20G25
  22040767.6664   -4284439.51749  -3335044.70347                  22040768.5914
        49.5004         37.5004
  22821615.3514    3790704.77149   2944536.20247                  22821616.0434
        45.2504         33.0004
  22571491.1154   -7138305.90249  -5554177.75847                  22571491.3294
        47.0004         34.2504
  21070471.4274   -6017681.78949  -4680934.97848                  21070470.1344
        52.0004         43.5004
  21775858.7744    4028487.33849   3130047.14148                  21775858.3634
        50.7504         41.2504
 04  6 28 22 35 10.0000000  0  5G 1G11G16G20G25
  22037460.8074   -4301819.60549  -3348587.61847                  22037460.9624
        50.2504         37.2504
  22825420.2164    3810698.64749   2960115.83647                  22825420.3104
        42.5004         32.5004
  22566085.1134   -7166712.95849  -5576313.10547                  22566085.8544
        47.7504         34.5004
  21066234.9624   -6039945.40749  -4698283.24648                  21066233.5944
        52.5004         43.0004
  21779756.6324    4048970.37249   3146007.94448                  21779756.0024
        48.7504         41.2504
 04  6 28 22 35 20.0000000  0  5G 1G11G16G20G25
  22034154.9514   -4319191.70649  -3362124.30947                  22034155.1614
        50.0004         38.2504
  22829229.3494    3830717.47649   2975714.90447                  22829230.3884
        42.2504         32.0004
  22560685.3994   -7195092.13549  -5598426.74447                  22560684.8914
        47.0004         34.5004
  21062005.2134   -6062171.82749  -4715602.52748                  21062004.0824
        51.7504         43.2504
  21783658.2724    4069475.22949   3161985.74448                  21783658.1014
        47.2504         41.5004
 04  6 28 22 35 30.0000000  0  5G 1G11G16G20G25
  22030850.2364   -4336555.42049  -3375654.46747                  22030851.0154
        50.5004         37.7504
  22833043.7814    3850761.60949   2991333.69447                  22833044.5994
        42.2504         32.5004
  22555289.6784   -7223443.01449  -5620518.31747                  22555289.6464
        47.2504         34.2504
  21057782.5934   -6084360.56749  -4732892.45148                  21057781.6584
        51.5004         43.0004
  21787564.4484    4090002.29049   3177980.84548                  21787564.2344
        47.0004         41.2504
 04  6 28 22 35 40.0000000  0  5G 1G11G16G20G25
  22027548.0544   -4353910.17949  -3389177.63647                  22027548.1024
        49.5004         37.5004
  22836863.2404    3870831.54049   3006972.58047                  22836863.3304
        42.5004         32.2504
  22549900.5404   -7251764.76049  -5642587.19347                  22549899.7834
        47.5004         34.0004
  21053567.6814   -6106510.95649  -4750152.48648                  21053566.8784
        52.5004         43.2504
  21791475.2894    4110552.04049   3193993.62748                  21791474.5354
        47.0004         41.0004
 04  6 28 22 35 50.0000000  0  5G 1G11G16G20G25
  22024246.5064   -4371259.45949  -3402696.55247                  22024246.6664
        50.0004         37.5004
  22840686.1864    3890923.68249   3022628.78447                  22840687.1154
        42.5004         32.2504
  22544516.2284   -7280060.83649  -5664636.05647                  22544515.5244
        47.5004         34.0004
  21049359.4784   -6128626.36349  -4767385.26048                  21049358.7434
        52.0004         43.0004
  21795388.9614    4131120.92749   3210021.32648                  21795388.3114
        47.0004         41.0004
 04  6 28 22 36  0.0000000  0  5G 1G11G16G20G25
  22020946.4734   -4388602.16849  -3416210.34147                  22020946.3694
        49.2504         37.5004
  22844513.9724    3911038.98849   3038303.03747                  22844515.0284
        43.0004         31.7504
  22539136.3594   -7308329.94349  -5686663.90747                  22539136.1714
        48.5004         34.5004
  21045158.0214   -6150705.60049  -4784589.85848                  21045157.0124
        51.7504         43.2504
  21799307.2524    4151709.92049   3226064.68748                  21799306.7194
        48.7504         40.7504
 04  6 28 22 36 10.0000000  0  5G 1G11G16G20G25
  22017647.3964   -4405937.27049  -3429718.21047                  22017647.7794
        50.0004         37.2504
  22848346.6714    3931178.43749   3053996.09647                  22848347.3034
        45.5004         32.7504
  22533762.3554   -7336570.99949  -5708669.91447                  22533762.2684
        47.2504         34.0004
  21040963.4624   -6172747.53449  -4801765.38448                  21040962.3124
        52.2504         43.2504
  21803229.4024    4172320.05749   3242124.53148                  21803228.5774
        50.7504         40.7504
 04  6 28 22 36 20.0000000  0  5G 1G11G16G20G25
  22014350.8324   -4423262.60449  -3443218.44947                  22014350.8844
        50.2504         37.7504
  22852183.8694    3951344.11249   3069709.58547                  22852184.8904
        48.0004         32.7504
  22528393.8844   -7364781.69049  -5730652.23147                  22528393.6744
        48.0004         34.2504
  21036776.3124   -6194749.88149  -4818910.06448                  21036775.1554
        52.0004         43.0004
  21807155.6384    4192953.33349   3258202.39348                  21807154.7914
        51.0004         41.2504
 04  6 28 22 36 30.0000000  0  5G 1G11G16G20G25
  22011055.3804   -4440580.68149  -3456713.04647                  22011055.9314
        50.2504         37.7504
  22856026.1524    3971533.39049   3085441.47247                  22856026.7744
        47.2504         33.7504
  22523031.0794   -7392964.33549  -5752612.72647                  22523030.6984
        47.5004         34.2504
  21032596.6694   -6216715.12549  -4836025.83748                  21032595.7324
        52.5004         42.7504
  21811086.0784    4213607.29849   3274296.38448                  21811085.1254
        50.5004         40.5004
 04  6 28 22 36 40.0000000  0  5G 1G11G16G20G25
  22007761.2094   -4457891.86749  -3470202.26047                  22007761.7094
        49.2504         38.0004
  22859872.6864    3991745.77649   3101191.36147                  22859872.8554
        44.5004         33.2504
  22517673.1694   -7421119.31249  -5774551.64847                  22517672.7284
        47.7504         34.7504
  21028423.6754   -6238643.50349  -4853112.87948                  21028422.6264
        53.0004         43.5004
  21815020.0464    4234281.36849   3290406.04348                  21815019.5384
        50.0004         41.0004
 04  6 28 22 36 50.0000000  0  5G 1G11G16G20G25
  22004468.8934   -4475195.15649  -3483685.34147                  22004468.9944
        50.0004         38.0004
  22863723.0904    4011982.05949   3116959.86147                  22863723.9264
        42.5004         32.7504
  22512320.8124   -7449245.43849  -5796468.10847                  22512320.9634
        47.7504         35.0004
  21024258.0654   -6260533.98849  -4870170.40048                  21024257.3954
        52.2504         43.7504
  21818958.3624    4254976.53849   3306532.14448                  21818957.4494
        48.0004         41.0004
 04  6 28 22 37  0.0000000  0  5G 1G11G16G20G25
  22001177.3354   -4492490.74949  -3497162.41347                  22001177.4954
        49.5004         38.2504
  22867578.5554    4032242.14549   3132746.94247                  22867578.9104
        42.5004         32.5004
  22506974.2914   -7477342.91049  -5818362.19647                  22506974.7344
        47.5004         35.2504
  21020099.7164   -6282386.67449  -4887198.45848                  21020098.9274
        52.0004         43.7504
  21822900.1724    4275692.45549   3322674.41048                  21822899.2184
        47.7504         41.2504
 04  6 28 22 37 10.0000000  0  5G 1G11G16G20G25
  21997887.2214   -4509778.16649  -3510633.11447                  21997887.3694
        50.5004         38.0004
  22871438.7894    4052526.44349   3148552.85447                  22871439.2214
        43.0004         32.5004
  22501633.0404   -7505410.97849  -5840233.40747                  22501632.9864
        48.0004         35.5004
  21015948.4664   -6304200.90249  -4904196.54748                  21015947.2964
        52.0004         43.2504
  21826846.3794    4296429.65949   3338833.26448                  21826845.7914
        48.7504         41.0004
 04  6 28 22 37 20.0000000  0  5G 1G11G16G20G25
  21994598.6474   -4527059.61649  -3524099.18047                  21994599.1914
        50.0004         37.7504
  22875302.7684    4072832.61149   3164375.82747                  22875303.9274
        46.0004         31.5004
  22496297.3074   -7533451.77649  -5862083.35647                  22496297.0184
        47.5004         35.2504
  21011804.2294   -6325978.82949  -4921166.35448                  21011803.1904
        52.0004         43.0004
  21830795.9384    4317185.83549   3355006.89648                  21830795.4304
        50.2504         41.0004
 04  6 28 22 37 30.0000000  0  5G 1G11G16G20G25
  21991312.0164   -4544332.47649  -3537558.52747                  21991311.9624
        49.2504         38.2504
  22879171.5384    4093163.16149   3180217.78547                  22879171.9784
        48.0004         32.5004
  22490966.9244   -7561462.52449  -5883909.88347                  22490966.8944
        48.2504         34.5004
  21007667.6844   -6347717.75149  -4938105.76548                  21007666.4764
        52.0004         43.0004
  21834750.1374    4337963.53249   3371197.32148                  21834749.4594
        50.7504         41.2504
 04  6 28 22 37 40.0000000  0  5G 1G11G16G20G25
  21988026.1674   -4561599.76449  -3551013.55247                  21988026.4414
        49.2504         38.5004
  22883044.1914    4113514.93949   3196076.31047                  22883044.4694
        47.7504         32.5004
  22485641.5824   -7589446.19449  -5905715.33447                  22485641.4204
        47.0004         35.0004
  21003537.6274   -6369420.59749  -4955017.07848                  21003536.3594
        52.7504         43.2504
  21838707.4574    4358759.67749   3387402.08848                  21838706.5804
        50.5004         41.0004
 04  6 28 22 37 50.0000000  0  5G 1G11G16G20G25
  21984741.3724   -4578858.82449  -3564462.16747                  21984742.3234
        49.5004         37.2504
  22886921.5904    4133890.46849   3211953.32447                  22886921.7934
        47.5004         32.2504
  22480322.5004   -7617400.02149  -5927497.52547                  22480322.0104
        47.5004         34.0004
  20999415.2304   -6391084.60849  -4971898.12048                  20999414.3744
        52.0004         43.0004
  21842668.7284    4379576.84149   3403623.25248                  21842668.0944
        51.2504         40.5004
 04  6 28 22 38  0.0000000  0  5G 1G11G16G20G25
  21981458.7944   -4596109.50449  -3577904.23047                  21981459.4714
        49.0004         37.7504
  22890803.4644    4154289.86249   3227848.93347                  22890804.4044
        46.7504         31.7504
  22475008.4454   -7645323.66049  -5949256.19047                  22475007.9434
        48.0004         34.7504
  20995300.4364   -6412709.55349  -4988748.71448                  20995299.2514
        52.5004         43.7504
  21846634.1294    4400415.04649   3419860.81148                  21846633.2964
        51.7504         41.0004
 04  6 28 22 38 10.0000000  0  5G 1G11G16G20G25
  21978178.5034   -4613349.00749  -3591337.60447                  21978178.8244
        49.2504         38.2504
  22894690.3824    4174715.83149   3243765.24947                  22894691.3424
        47.2504         31.5004
  22469701.0294   -7673214.26149  -5970989.09147                  22469700.4164
        47.0004         34.0004
  20991193.1324   -6434292.54449  -5005566.61848                  20991192.3024
        51.7504         43.7504
  21850604.3034    4421277.00449   3436116.88448                  21850603.0974
        51.5004         41.0004
 04  6 28 22 38 20.0000000  0  5G 1G11G16G20G25
  21974898.5364   -4630584.34049  -3604767.71647                  21974899.0524
        49.5004         38.0004
  22898581.0934    4195161.24049   3259696.72347                  22898581.7974
        47.7504         31.7504
  22464398.6504   -7701078.68749  -5992701.62747                  22464398.2454
        47.0004         34.5004
  20987092.3654   -6455840.45249  -5022357.19348                  20987091.5194
        52.0004         43.2504
  21854577.4784    4442155.73749   3452386.02248                  21854576.5514
        51.0004         40.5004
 04  6 28 22 38 30.0000000  0  5G 1G11G16G20G25
  21971620.3474   -4647811.76149  -3618191.67247                  21971620.4404
        49.5004         37.2504
  22902476.4034    4215629.70449   3275646.14347                  22902476.5384
        48.0004         32.0004
  22459102.0684   -7728913.14449  -6014390.78047                  22459101.5374
        47.2504         34.7504
  20982999.6984   -6477349.51749  -5039117.49848                  20982998.5064
        52.0004         43.2504
  21858554.1904    4463054.88349   3468671.05848                  21858553.3274
        50.5004         40.0004
 04  6 28 22 38 40.0000000  0  5G 1G11G16G20G25
  21968343.4024   -4665031.80749  -3631609.87147                  21968343.5244
        47.2504         37.7504
  22906375.8184    4236120.62049   3291613.07547                  22906376.3194
        48.0004         32.0004
  22453811.0054   -7756717.92249  -6036056.81947                  22453810.7474
        47.0004         35.0004
  20978913.7684   -6498820.07249  -5055847.79748                  20978912.5434
        52.0004         43.2504
  21862534.8044    4483973.77149   3484971.49748                  21862534.2954
        50.2504         40.7504
 04  6 28 22 38 50.0000000  0  5G 1G11G16G20G25
  21965067.7074   -4682245.20649  -3645022.91147                  21965067.7324
        49.0004         38.0004
  22910279.0214    4256633.13449   3307596.84347                  22910279.5784
        48.2504         32.0004
  22448525.8244   -7784493.73049  -6057700.30247                  22448525.1414
        47.0004         35.0004
  20974835.3784   -6520252.83949  -5072548.65048                  20974834.2734
        52.0004         43.0004
  21866519.3734    4504911.70549   3501286.76148                  21866518.7784
        49.2504         40.5004
 04  6 28 22 39  0.0000000  0  5G 1G11G16G20G25
  21961793.7854   -4699450.68549  -3658429.75747                  21961794.0954
        48.5004         38.0004
  22914186.2924    4277168.47349   3323598.38647                  22914186.9484
        47.0004         32.0004
  22443246.0354   -7812239.16749  -6079320.10447                  22443245.2064
        47.0004         35.0004
  20970763.9564   -6541646.39949  -5089218.95148                  20970763.0044
        52.0004         43.5004
  21870506.9294    4525869.82649   3517617.75948                  21870506.6814
        49.5004         40.2504
 04  6 28 22 39 10.0000000  0  5G 1G11G16G20G25
  21958521.0694   -4716648.49849  -3671830.63947                  21958521.1434
        49.7504         38.7504
  22918098.7894    4297726.27349   3339617.42347                  22918099.3864
        47.2504         31.2504
  22437971.5354   -7839954.31149  -6100916.29647                  22437971.3074
        47.5004         34.7504
  20966700.5724   -6563000.95349  -5105858.84948                  20966699.4224
        52.7504         43.7504
  21874499.2394    4546847.83649   3533964.24448                  21874499.0724
        49.7504         40.2504
 04  6 28 22 39 20.0000000  0  5G 1G11G16G20G25
  21955249.7804   -4733839.88249  -3685226.51547                  21955250.1154
        48.5004         38.5004
  22922015.0294    4318305.16549   3355652.91047                  22922014.8934
        47.5004         31.7504
  22432703.1394   -7867640.32349  -6122489.80047                  22432702.6034
        46.2504         35.5004
  20962643.9774   -6584317.67549  -5122469.28348                  20962642.8374
        52.7504         44.0004
  21878494.7934    4567844.31849   3550325.13348                  21878494.9294
        50.0004         40.0004
 04  6 28 22 39 30.0000000  0  5G 1G11G16G20G25
  21951979.8314   -4751023.88549  -3698616.62847                  21951980.1864
        47.2504         38.2504
  22925935.1144    4338906.09549   3371705.56147                  22925935.4374
        47.7504         33.0004
  22427440.0154   -7895296.23349  -6144039.84747                  22427440.3314
        45.2504         35.5004
  20958595.1754   -6605595.50149  -5139049.40748                  20958593.9984
        52.0004         43.7504
  21882493.7534    4588860.19849   3566701.12948                  21882493.4794
        50.5004         40.0004
 04  6 28 22 39 40.0000000  0  5G 1G11G16G20G25
  21948711.1114   -4768200.86349  -3712001.27147                  21948710.9064
        49.2504         37.7504
  22929859.4194    4359528.55049   3387774.98147                  22929860.1874
        48.0004         32.5004
  22422182.9734   -7922922.18149  -6165566.52947                  22422182.9424
        47.5004         35.5004
  20954553.2774   -6626834.75349  -5155599.46348                  20954552.3774
        52.0004         43.2504
  21886496.5154    4609895.09549   3583091.94647                  21886496.4184
        50.5004         39.0004
 04  6 28 22 39 50.0000000  0  5G 1G11G16G20G25
  21945444.1044   -4785369.71249  -3725379.58547                  21945444.3384
        47.5004         38.2504
  22933788.3634    4380173.41649   3403861.87247                  22933788.9414
        48.0004         32.7504
  22416932.2174   -7950516.95849  -6187068.91747                  22416932.1124
        45.5004         35.0004
  20950519.3164   -6648034.15449  -5172118.46848                  20950518.3894
        52.5004         43.0004
  21890503.2844    4630949.99049   3599498.34548                  21890503.6764
        50.0004         39.5004
 04  6 28 22 40  0.0000000  0  5G 1G11G16G20G25
  21942178.4094   -4802529.54949  -3738750.87747                  21942178.9734
        49.7504         38.0004
  22937721.0764    4400841.59649   3419966.92547                  22937721.4164
        48.2504         31.5004
  22411687.3204   -7978079.49349  -6208546.21647                  22411686.6984
        48.2504         34.2504
  20946493.0854   -6669192.71249  -5188605.65648                  20946491.7814
        52.7504         43.0004
  21894513.8514    4652025.74149   3615920.99648                  21894513.6844
        50.7504         39.7504
 04  6 28 22 40 10.0000000  0  5G 1G11G16G20G25
  21938914.4154   -4819683.26749  -3752117.40247                  21938914.3354
        49.0004         38.2504
  22941658.0414    4421530.07149   3436087.80547                  22941659.2844
        47.7504         32.7504
  22406447.8294   -8005612.64549  -6230000.60147                  22406446.6834
        46.5004         35.0004
  20942473.9654   -6690313.23049  -5205063.19048                  20942472.8514
        52.2504         43.5004
  21898527.9184    4673119.35149   3632357.56548                  21898528.1664
        50.2504         40.5004
 04  6 28 22 40 20.0000000  0  5G 1G11G16G20G25
  21935651.3594   -4836827.96749  -3765476.90347                  21935651.9824
        48.2504         38.2504
  22945599.2684    4442241.71349   3452226.72147                  22945600.0324
        47.5004         32.5004
  22401214.8794   -8033113.41349  -6251429.76247                  22401213.8274
        46.5004         34.7504
  20938462.4594   -6711392.81649  -5221488.84448                  20938461.0224
        52.2504         43.5004
  21902545.7344    4694233.62349   3648810.23948                  21902545.2154
        50.0004         40.2504
 04  6 28 22 40 30.0000000  0  5G 1G11G16G20G25
  21932390.5914   -4853964.63449  -3778830.13547                  21932390.6604
        50.0004         39.0004
  22949544.8854    4462975.38449   3468382.80547                  22949545.3984
        47.2504         32.7504
  22395987.4044   -8060582.60249  -6272834.30347                  22395986.7424
        47.2504         35.0004
  20934458.9844   -6732432.28049  -5237883.23048                  20934457.6374
        52.2504         43.5004
  21906567.3004    4715367.56049   3665278.22448                  21906567.2034
        50.7504         41.0004
 04  6 28 22 40 40.0000000  0  5G 1G11G16G20G25
  21929131.0374   -4871093.87749  -3792177.58747                  21929131.2844
        49.0004         39.2504
  22953494.0854    4483730.42549   3484555.54847                  22953495.1774
        47.2504         32.5004
  22390765.5894   -8088020.72749  -6294214.64247                  22390765.1824
        46.5004         35.5004
  20930462.5974   -6753432.14049  -5254246.74648                  20930461.6264
        52.2504         43.2504
  21910592.7554    4736520.45849   3681760.99048                  21910592.3464
        51.0004         41.0004
 04  6 28 22 40 50.0000000  0  5G 1G11G16G20G25
  21925873.1674   -4888214.75649  -3805518.52547                  21925873.3854
        48.5004         38.7504
  22957448.0304    4504507.65249   3500745.58647                  22957449.0084
        47.0004         32.2504
  22385550.8364   -8115426.70949  -6315569.92847                  22385549.9874
        47.5004         36.0004
  20926474.3074   -6774391.39049  -5270578.62348                  20926473.2044
        52.0004         43.5004
  21914621.9504    4757693.19549   3698259.21948                  21914621.6304
        50.5004         40.5004
 04  6 28 22 41  0.0000000  0  5G 1G11G16G20G25
  21922616.5564   -4905328.30649  -3818853.74247                  21922617.0444
        50.0004         38.7504
  22961405.9064    4525305.89849   3516951.96947                  22961406.8184
        46.7504         32.5004
  22380341.3774   -8142801.61249  -6336901.01547                  22380341.4684
        47.7504         36.0004
  20922493.1564   -6795311.04449  -5286879.64648                  20922492.0294
        52.5004         43.2504
  21918654.6394    4778884.68049   3714772.04348                  21918654.5754
        51.0004         40.2504
 04  6 28 22 41 10.0000000  0  5G 1G11G16G20G25
  21919361.6554   -4922434.48849  -3832183.23047                  21919361.7894
        49.5004         38.5004
  22965367.7514    4546125.03549   3533174.64847                  22965368.3454
        47.5004         32.0004
  22375138.6214   -8170145.18849  -6358207.66747                  22375138.1034
        47.7504         35.2504
  20918519.9014   -6816190.89149  -5303149.66448                  20918518.6094
        52.0004         42.2504
  21922691.0304    4800094.82149   3731299.41948                  21922690.2104
        51.2504         39.7504
 04  6 28 22 41 20.0000000  0  5G 1G11G16G20G25
  21916107.4354   -4939532.81049  -3845506.57547                  21916108.1584
        50.0004         39.0004
  22969333.5474    4566965.57049   3549414.00647                  22969334.0164
        47.0004         31.5004
  22369940.9164   -8197456.79449  -6379489.41847                  22369940.5754
        48.0004         35.7504
  20914554.5234   -6837030.40949  -5319388.23248                  20914553.2984
        51.7504         43.0004
  21926730.5984    4821324.02049   3747841.64848                  21926730.1444
        50.7504         40.5004
 04  6 28 22 41 30.0000000  0  5G 1G11G16G20G25
  21912855.3854   -4956623.46049  -3858823.96047                  21912855.8694
        50.0004         38.7504
  22973303.1314    4587827.21149   3565669.81147                  22973303.7714
        46.0004         31.5004
  22364750.1944   -8224736.57149  -6400746.38047                  22364749.4994
        48.5004         35.5004
  20910596.6534   -6857829.64449  -5335595.43348                  20910595.2884
        52.2504         43.0004
  21930774.3414    4842572.02849   3764398.52848                  21930773.5214
        51.0004         40.0004
 04  6 28 22 41 40.0000000  0  5G 1G11G16G20G25
  21909604.3954   -4973707.10049  -3872135.87647                  21909604.8864
        49.0004         38.5004
  22977276.8354    4608709.15549   3581941.44647                  22977277.1554
        47.0004         31.5004
  22359564.3234   -8251984.98649  -6421978.88647                  22359564.4974
        47.5004         35.0004
  20906645.8134   -6878589.17349  -5351771.67848                  20906644.6764
        52.2504         43.2504
  21934820.9904    4863838.26649   3780969.60848                  21934820.5224
        51.2504         40.0004
 04  6 28 22 41 50.0000000  0  5G 1G11G16G20G25
  21906355.0214   -4990783.15849  -3885441.88547                  21906355.6694
        49.7504         38.5004
  22981254.6244    4629611.90249   3598229.28347                  22981255.1994
        46.7504         31.5004
  22354385.4414   -8279201.35249  -6443186.41747                  22354385.1474
        46.7504         34.2504
  20902703.2084   -6899308.30649  -5367916.44848                  20902701.4154
        52.5004         42.7504
  21938870.9554    4885123.18249   3797555.25548                  21938870.1914
        50.7504         39.7504
 04  6 28 22 42  0.0000000  0  5G 1G11G16G20G25
  21903106.9624   -5007851.38249  -3898741.78847                  21903107.4324
        50.0004         38.7504
  22985236.5684    4650535.51349   3614533.36447                  22985236.9784
        47.5004         31.5004
  22349212.8524   -8306385.39649  -6464368.77347                  22349211.6854
        47.7504         34.2504
  20898768.0724   -6919986.73249  -5384029.50648                  20898767.0604
        52.5004         43.0004
  21942925.2684    4906426.86649   3814155.52548                  21942923.8414
        50.7504         39.5004
 04  6 28 22 42 10.0000000  0  5G 1G11G16G20G25
  21899860.7154   -5024911.31349  -3912035.22647                  21899860.8964
        49.5004         39.0004
  22989222.4974    4671480.45349   3630854.07847                  22989223.3284
        47.7504         32.5004
  22344045.3004   -8333536.50549  -6485525.46647                  22344044.4804
        48.5004         34.7504
  20894841.0794   -6940623.87849  -5400110.39348                  20894839.5904
        52.0004         42.7504
  21946983.2364    4927749.70849   3830770.72147                  21946982.1734
        50.5004         39.0004
 04  6 28 22 42 20.0000000  0  5G 1G11G16G20G25
  21896615.5604   -5041963.78149  -3925322.85447                  21896616.0344
        50.5004         38.5004
  22993212.1044    4692445.84149   3647190.72547                  22993212.7654
        47.5004         32.2504
  22338885.1624   -8360655.36449  -6506657.02247                  22338884.3064
        48.0004         35.0004
  20890921.7244   -6961220.46049  -5416159.66948                  20890920.4994
        52.2504         43.5004
  21951044.3364    4949090.87949   3847400.20447                  21951043.1234
        50.7504         39.0004
 04  6 28 22 42 30.0000000  0  5G 1G11G16G20G25
  21893371.5754   -5059009.38149  -3938605.12947                  21893372.1304
        49.7504         38.2504
  22997204.5704    4713430.88449   3663542.69247                  22997206.4074
        47.2504         32.0004
  22333730.4854   -8387742.58749  -6527763.94547                  22333730.1534
        47.7504         35.0004
  20887009.9904   -6981777.07949  -5432177.81248                  20887008.7164
        52.2504         43.5004
  21955108.3464    4970449.69149   3864043.42247                  21955107.1774
        50.2504         39.0004
 04  6 28 22 42 40.0000000  0  5G 1G11G16G20G25
  21890129.8964   -5076045.78449  -3951880.23747                  21890130.5284
        50.2504         39.0004
  23001202.7274    4734437.82049   3679911.71647                  23001203.3054
        47.5004         31.7504
  22328583.0594   -8414795.53449  -6548844.14047                  22328582.0124
        48.5004         35.5004
  20883106.0174   -7002291.24149  -5448162.86648                  20883104.9494
        52.0004         43.0004
  21959176.9134    4991828.39249   3880702.14947                  21959175.5374
        49.5004         39.0004
 04  6 28 22 42 50.0000000  0  5G 1G11G16G20G25
  21886889.3764   -5093074.92849  -3965149.69647                  21886889.4874
        49.7504         39.0004
  23005203.5104    4755464.55949   3696296.15547                  23005204.1574
        47.2504         32.2504
  22323440.7954   -8441816.12149  -6569899.13147                  22323440.2204
        48.5004         35.0004
  20879210.2104   -7022764.86449  -5464116.33948                  20879209.1034
        52.0004         43.5004
  21963248.4884    5013224.87549   3897374.73347                  21963246.8244
        49.7504         38.7504
 04  6 28 22 43  0.0000000  0  5G 1G11G16G20G25
  21883650.4454   -5110095.37249  -3978412.37247                  21883650.2904
        50.2504         39.0004
  23009209.1994    4776512.51249   3712697.14147                  23009209.4304
        47.5004         32.0004
  22318305.3494   -8468802.84149  -6590927.72447                  22318304.6704
        48.5004         35.0004
  20875321.8914   -7043196.47749  -5480037.06648                  20875321.0594
        52.0004         43.7504
  21967323.2414    5034640.55049   3914062.27047                  21967322.2624
        51.2504         38.5004
 04  6 28 22 43 10.0000000  0  5G 1G11G16G20G25
  21880413.6974   -5127104.65749  -3991666.35647                  21880414.1844
        50.2504         38.5004
  23013219.4734    4797584.07149   3729116.51247                  23013219.6784
        47.0004         32.0004
  22313176.7784   -8495753.13249  -6611927.93047                  22313176.4644
        48.5004         35.5004
  20871442.8484   -7063583.40649  -5495922.98048                  20871441.8484
        52.2504         43.7504
  21971402.7624    5056077.80049   3930766.61547                  21971401.4504
        50.0004         38.5004
 04  6 28 22 43 20.0000000  0  5G 1G11G16G20G25
  21877177.9184   -5144107.74449  -4004915.51047                  21877178.7474
        49.5004         38.5004
  23017232.3394    4818674.09149   3745550.28947                  23017232.8314
        47.0004         31.0004
  22308054.3204   -8522671.78149  -6632903.48047                  22308054.3014
        48.0004         35.7504
  20867570.6134   -7083930.55549  -5511777.89948                  20867569.4964
        52.0004         43.5004
  21975485.3354    5077531.57349   3947483.82347                  21975484.0914
        49.5004         38.2504
 04  6 28 22 43 30.0000000  0  5G 1G11G16G20G25
  21873944.3504   -5161103.18049  -4018158.69047                  21873944.4264
        49.0004         39.0004
  23021248.9184    4839783.95049   3761999.49047                  23021250.1054
        47.2504         32.0004
  22302938.3384   -8549557.24149  -6653853.16647                  22302938.1934
        47.2504         36.0004
  20863706.5344   -7104236.35649  -5527600.59148                  20863705.7464
        52.0004         43.5004
  21979571.3994    5099003.32049   3964215.05947                  21979570.0414
        50.0004         37.7504
 04  6 28 22 43 40.0000000  0  5G 1G11G16G20G25
  21870710.9884   -5178093.10849  -4031397.59447                  21870711.1754
        49.5004         39.2504
  23025269.7254    4860911.34449   3778462.37847                  23025270.5104
        47.0004         31.7504
  22297827.6514   -8576411.53149  -6674778.57547                  22297827.8294
        47.7504         36.0004
  20859850.0814   -7124503.00349  -5543392.78048                  20859848.9004
        52.0004         44.0004
  21983660.2674    5120490.73849   3980958.49647                  21983659.2704
        50.2504         38.2504
 04  6 28 22 43 50.0000000  0  5G 1G11G16G20G25
  21867479.0124   -5195076.52649  -4044631.41147                  21867479.6054
        49.0004         38.7504
  23029293.2654    4882057.23249   3794939.65247                  23029294.6474
        47.0004         31.5004
  22292723.7594   -8603233.51849  -6695678.82047                  22292723.3314
        46.5004         36.0004
  20856001.0944   -7144729.28249  -5559153.51148                  20855999.9934
        51.7504         43.5004
  21987752.4414    5141994.85649   3997714.93647                  21987751.3514
        50.5004         38.5004
 04  6 28 22 44  0.0000000  0  5G 1G11G16G20G25
  21864248.6404   -5212053.09649  -4057859.89847                  21864248.9474
        48.5004         39.0004
  23033321.0684    4903221.87649   3811431.56547                  23033322.4004
        46.5004         30.7504
  22287626.3034   -8630022.82449  -6716553.58347                  22287625.2624
        47.0004         35.5004
  20852159.6114   -7164914.82849  -5574882.51248                  20852158.5464
        51.7504         43.2504
  21991847.7624    5163515.88549   4014484.57147                  21991846.8904
        49.7504         39.2504
 04  6 28 22 44 10.0000000  0  5G 1G11G16G20G25
  21861019.3014   -5229020.79649  -4071081.47347                  21861019.8864
        49.5004         39.0004
  23037352.8284    4924407.10349   3827939.49547                  23037354.4384
        47.2504         31.5004
  22282534.4344   -8656777.28649  -6737401.19847                  22282534.1574
        47.0004         35.5004
  20848326.9074   -7185057.49349  -5590578.08548                  20848325.6574
        52.0004         43.0004
  21995946.7974    5185055.76549   4031268.86847                  21995945.4254
        50.2504         39.2504
 04  6 28 22 44 20.0000000  0  5G 1G11G16G20G25
  21857792.0114   -5245982.46049  -4084298.35347                  21857792.5984
        48.5004         39.0004
  23041387.2404    4945610.06949   3844461.27347                  23041388.8884
        47.0004         31.7504
  22277449.4914   -8683499.65049  -6758223.81547                  22277449.2904
        46.5004         36.2504
  20844501.5834   -7205160.04849  -5606242.41048                  20844500.2234
        51.5004         43.0004
  22000048.9434    5206611.57549   4048065.60347                  22000047.9614
        49.7504         39.0004
 04  6 28 22 44 30.0000000  0  5G 1G11G16G20G25
  21854566.1294   -5262935.50749  -4097508.49947                  21854566.2634
        48.5004         38.7504
  23045426.1204    4966833.22649   3860998.75547                  23045427.0644
        46.5004         32.2504
  22272371.1364   -8710187.18549  -6779019.27347                  22272370.5594
        46.7504         36.5004
  20840684.0744   -7225219.79349  -5621873.37148                  20840683.0394
        51.7504         43.2504
  22004154.0794    5228185.81149   4064876.68748                  22004153.4634
        49.7504         39.7504
 04  6 28 22 44 40.0000000  0  5G 1G11G16G20G25
  21851341.2144   -5279882.22249  -4110713.72447                  21851341.4244
        49.0004         39.0004
  23049468.0664    4988074.25549   3877550.17647                  23049469.1024
        47.0004         31.2504
  22267299.3654   -8736842.02449  -6799789.28147                  22267298.4724
        47.5004         35.7504
  20836874.6944   -7245238.92549  -5637472.70348                  20836873.5924
        52.0004         43.5004
  22008262.7614    5249776.20749   4081700.35748                  22008261.7074
        50.0004         39.7504
 04  6 28 22 44 50.0000000  0  5G 1G11G16G20G25
  21848117.6894   -5296820.79849  -4123912.60548                  21848118.1444
        48.0004         39.5004
  23053513.9024    5009334.86449   3894116.89747                  23053514.7334
        47.7504         31.7504
  22262233.5044   -8763462.26849  -6820532.30447                  22262232.8324
        46.0004         36.5004
  20833073.1064   -7265215.57649  -5653038.90848                  20833071.9934
        53.2504         43.7504
  22012374.5534    5271384.43349   4098537.93448                  22012374.0244
        50.7504         40.2504
